Observation data for Throckmorton on 11/05/2019      Previous  Date       Current Mesonet Observations  Soil Data  Daily Summary Page  Observations in Plain Language
KTH1 050600Z 01003KT 11/07 A3008 RMK A01 T01070071  RH  078%=      5-min Rain = 0
KTH1 050601Z 00005KT 11/07 A3008 RMK A01 T01070070  RH  078%=      5-min Rain = 0
KTH1 050602Z 00003KT 11/07 A3008 RMK A01 T01070071  RH  078%=      5-min Rain = 0
KTH1 050603Z 01004KT 11/07 A3008 RMK A01 T01060070  RH  079%=      5-min Rain = 0
KTH1 050604Z 01004KT 11/07 A3008 RMK A01 T01060071  RH  079%=      5-min Rain = 0
KTH1 050605Z 01005KT 11/07 A3008 RMK A01 T01060071  RH  079%=      5-min Rain = 0
KTH1 050606Z 01004KT 11/07 A3008 RMK A01 T01070071  RH  079%=      5-min Rain = 0
KTH1 050607Z 01004KT 11/07 A3008 RMK A01 T01070071  RH  078%=      5-min Rain = 0
KTH1 050608Z 01004KT 11/07 A3008 RMK A01 T01070071  RH  078%=      5-min Rain = 0
KTH1 050609Z 00004KT 11/07 A3008 RMK A01 T01070071  RH  078%=      5-min Rain = 0
KTH1 050610Z 01005KT 11/07 A3008 RMK A01 T01070071  RH  078%=      5-min Rain = 0
KTH1 050611Z 36005KT 11/07 A3008 RMK A01 T01070071  RH  078%=      5-min Rain = 0
KTH1 050612Z 00003KT 11/07 A3008 RMK A01 T01060071  RH  079%=      5-min Rain = 0
KTH1 050613Z 00005KT 11/07 A3008 RMK A01 T01060071  RH  079%=      5-min Rain = 0
KTH1 050614Z 00005KT 11/07 A3008 RMK A01 T01060071  RH  079%=      5-min Rain = 0
KTH1 050615Z 00004KT 11/07 A3008 RMK A01 T01060071  RH  079%=      5-min Rain = 0
KTH1 050616Z 00004KT 11/07 A3008 RMK A01 T01060071  RH  079%=      5-min Rain = 0
KTH1 050617Z 01003KT 11/07 A3008 RMK A01 T01060071  RH  079%=      5-min Rain = 0
KTH1 050618Z 01004KT 11/07 A3008 RMK A01 T01050070  RH  079%=      5-min Rain = 0
KTH1 050619Z 01005KT 11/07 A3008 RMK A01 T01050071  RH  079%=      5-min Rain = 0
KTH1 050620Z 01006KT 11/07 A3008 RMK A01 T01050071  RH  079%=      5-min Rain = 0
KTH1 050621Z 01005KT 11/07 A3008 RMK A01 T01050071  RH  080%=      5-min Rain = 0
KTH1 050622Z 00006KT 11/07 A3008 RMK A01 T01050071  RH  079%=      5-min Rain = 0
KTH1 050623Z 01005KT 11/07 A3008 RMK A01 T01050071  RH  079%=      5-min Rain = 0
KTH1 050624Z 01003KT 11/07 A3008 RMK A01 T01050071  RH  080%=      5-min Rain = 0
KTH1 050625Z 01005KT 11/07 A3008 RMK A01 T01050071  RH  079%=      5-min Rain = 0
KTH1 050626Z 00003KT 11/07 A3008 RMK A01 T01050071  RH  080%=      5-min Rain = 0
KTH1 050627Z 36004KT 11/07 A3008 RMK A01 T01050071  RH  080%=      5-min Rain = 0
KTH1 050628Z 00005KT 11/07 A3008 RMK A01 T01050071  RH  080%=      5-min Rain = 0
KTH1 050629Z 01004KT 11/07 A3008 RMK A01 T01050071  RH  080%=      5-min Rain = 0
KTH1 050630Z 01004KT 11/07 A3008 RMK A01 T01050071  RH  080%=      5-min Rain = 0
KTH1 050631Z 01004KT 11/07 A3008 RMK A01 T01050071  RH  080%=      5-min Rain = 0
KTH1 050632Z 01004KT 11/07 A3008 RMK A01 T01050071  RH  080%=      5-min Rain = 0
KTH1 050633Z 01005KT 11/07 A3008 RMK A01 T01050071  RH  080%=      5-min Rain = 0
KTH1 050634Z 01004KT 11/07 A3008 RMK A01 T01050071  RH  080%=      5-min Rain = 0
KTH1 050635Z 01003KT 11/07 A3008 RMK A01 T01050071  RH  080%=      5-min Rain = 0
KTH1 050636Z 01003KT 11/07 A3008 RMK A01 T01050072  RH  080%=      5-min Rain = 0
KTH1 050637Z 01003KT 11/07 A3008 RMK A01 T01050071  RH  080%=      5-min Rain = 0
KTH1 050638Z 01002KT 10/07 A3008 RMK A01 T01040071  RH  080%=      5-min Rain = 0
KTH1 050639Z 00004KT 10/07 A3008 RMK A01 T01040072  RH  080%=      5-min Rain = 0
KTH1 050640Z 01003KT 10/07 A3008 RMK A01 T01040071  RH  080%=      5-min Rain = 0
KTH1 050641Z 02003KT 10/07 A3008 RMK A01 T01040071  RH  080%=      5-min Rain = 0
KTH1 050642Z 01003KT 10/07 A3009 RMK A01 T01040072  RH  080%=      5-min Rain = 0
KTH1 050643Z 01003KT 10/07 A3009 RMK A01 T01040072  RH  080%=      5-min Rain = 0
KTH1 050644Z 01001KT 10/07 A3009 RMK A01 T01040072  RH  080%=      5-min Rain = 0
KTH1 050645Z 03001KT 10/07 A3009 RMK A01 T01040072  RH  080%=      5-min Rain = 0
KTH1 050646Z 04001KT 10/07 A3009 RMK A01 T01040071  RH  080%=      5-min Rain = 0
KTH1 050647Z 00002KT 10/07 A3009 RMK A01 T01030071  RH  080%=      5-min Rain = 0
KTH1 050648Z 01003KT 10/07 A3009 RMK A01 T01030071  RH  081%=      5-min Rain = 0
KTH1 050649Z 01002KT 10/07 A3009 RMK A01 T01030072  RH  081%=      5-min Rain = 0
KTH1 050650Z 03003KT 10/07 A3009 RMK A01 T01030071  RH  081%=      5-min Rain = 0
KTH1 050651Z 02003KT 10/07 A3009 RMK A01 T01030071  RH  081%=      5-min Rain = 0
KTH1 050652Z 00003KT 10/07 A3009 RMK A01 T01030071  RH  081%=      5-min Rain = 0
KTH1 050653Z 01003KT 10/07 A3009 RMK A01 T01030072  RH  081%=      5-min Rain = 0
KTH1 050654Z 00004KT 10/07 A3009 RMK A01 T01030072  RH  081%=      5-min Rain = 0
KTH1 050655Z 00005KT 10/07 A3009 RMK A01 T01030071  RH  081%=      5-min Rain = 0
KTH1 050656Z 35003KT 10/07 A3009 RMK A01 T01030071  RH  081%=      5-min Rain = 0
KTH1 050657Z 35004KT 10/07 A3009 RMK A01 T01020071  RH  081%=      5-min Rain = 0
KTH1 050658Z 00003KT 10/07 A3009 RMK A01 T01020071  RH  081%=      5-min Rain = 0
KTH1 050659Z 35003KT 10/07 A3009 RMK A01 T01010071  RH  082%=      5-min Rain = 0
KTH1 050700Z 00004KT 10/07 A3009 RMK A01 T01010071  RH  082%=      5-min Rain = 0
KTH1 050701Z 00003KT 10/07 A3009 RMK A01 T01010071  RH  082%=      5-min Rain = 0
KTH1 050702Z 00004KT 10/07 A3009 RMK A01 T01000071  RH  082%=      5-min Rain = 0
KTH1 050703Z 36005KT 10/07 A3009 RMK A01 T01000071  RH  082%=      5-min Rain = 0
KTH1 050704Z 36004KT 10/07 A3009 RMK A01 T01000071  RH  082%=      5-min Rain = 0
KTH1 050705Z 35004KT 10/07 A3009 RMK A01 T01000071  RH  082%=      5-min Rain = 0
KTH1 050706Z 35003KT 10/07 A3009 RMK A01 T00990071  RH  082%=      5-min Rain = 0
KTH1 050707Z 35003KT 10/07 A3009 RMK A01 T00990071  RH  082%=      5-min Rain = 0
KTH1 050708Z 35004KT 10/07 A3009 RMK A01 T00990071  RH  083%=      5-min Rain = 0
KTH1 050709Z 35005KT 10/07 A3009 RMK A01 T00980070  RH  083%=      5-min Rain = 0
KTH1 050710Z 35005KT 10/07 A3009 RMK A01 T00980071  RH  083%=      5-min Rain = 0
KTH1 050711Z 35005KT 10/07 A3009 RMK A01 T00970070  RH  083%=      5-min Rain = 0
KTH1 050712Z 36005KT 10/07 A3009 RMK A01 T00980071  RH  084%=      5-min Rain = 0
KTH1 050713Z 36004KT 10/07 A3009 RMK A01 T00970071  RH  084%=      5-min Rain = 0
KTH1 050714Z 36005KT 10/07 A3009 RMK A01 T00970071  RH  084%=      5-min Rain = 0
KTH1 050715Z 36005KT 10/07 A3009 RMK A01 T00970070  RH  084%=      5-min Rain = 0
KTH1 050716Z 35004KT 10/07 A3009 RMK A01 T00970071  RH  084%=      5-min Rain = 0
KTH1 050717Z 36004KT 10/07 A3009 RMK A01 T00970071  RH  084%=      5-min Rain = 0
KTH1 050718Z 36004KT 10/07 A3009 RMK A01 T00970071  RH  084%=      5-min Rain = 0
KTH1 050719Z 36004KT 10/07 A3009 RMK A01 T00970072  RH  084%=      5-min Rain = 0
KTH1 050720Z 35003KT 10/07 A3009 RMK A01 T00970071  RH  084%=      5-min Rain = 0
KTH1 050721Z 35003KT 10/07 A3009 RMK A01 T00980071  RH  084%=      5-min Rain = 0
KTH1 050722Z 35003KT 10/07 A3009 RMK A01 T00970072  RH  084%=      5-min Rain = 0
KTH1 050723Z 35003KT 10/07 A3009 RMK A01 T00980072  RH  084%=      5-min Rain = 0
KTH1 050724Z 36005KT 10/07 A3009 RMK A01 T00970072  RH  084%=      5-min Rain = 0
KTH1 050725Z 35003KT 10/07 A3009 RMK A01 T00980073  RH  084%=      5-min Rain = 0
KTH1 050726Z 00003KT 10/07 A3009 RMK A01 T00980072  RH  084%=      5-min Rain = 0
KTH1 050727Z 36003KT 10/07 A3009 RMK A01 T00980072  RH  084%=      5-min Rain = 0
KTH1 050728Z 00004KT 10/07 A3009 RMK A01 T00980072  RH  084%=      5-min Rain = 0
KTH1 050729Z 36003KT 10/07 A3009 RMK A01 T00980072  RH  084%=      5-min Rain = 0
KTH1 050730Z 36004KT 10/07 A3009 RMK A01 T00990073  RH  084%=      5-min Rain = 0
KTH1 050731Z 00003KT 10/07 A3009 RMK A01 T00980072  RH  084%=      5-min Rain = 0
KTH1 050732Z 00003KT 10/07 A3009 RMK A01 T00980072  RH  084%=      5-min Rain = 0
KTH1 050733Z 00004KT 10/07 A3009 RMK A01 T00980072  RH  084%=      5-min Rain = 0
KTH1 050734Z 36005KT 10/07 A3009 RMK A01 T00980073  RH  084%=      5-min Rain = 0
KTH1 050735Z 36003KT 10/07 A3009 RMK A01 T00980073  RH  084%=      5-min Rain = 0
KTH1 050736Z 01003KT 10/07 A3009 RMK A01 T00980073  RH  084%=      5-min Rain = 0
KTH1 050737Z 01004KT 10/07 A3009 RMK A01 T00990073  RH  084%=      5-min Rain = 0
KTH1 050738Z 01005KT 10/07 A3009 RMK A01 T00980072  RH  084%=      5-min Rain = 0
KTH1 050739Z 00004KT 10/07 A3009 RMK A01 T00980073  RH  084%=      5-min Rain = 0
KTH1 050740Z 36004KT 10/07 A3009 RMK A01 T00980073  RH  084%=      5-min Rain = 0
KTH1 050741Z 36005KT 10/07 A3009 RMK A01 T00970073  RH  085%=      5-min Rain = 0
KTH1 050742Z 01004KT 10/07 A3009 RMK A01 T00970073  RH  085%=      5-min Rain = 0
KTH1 050743Z 00004KT 10/07 A3009 RMK A01 T00970072  RH  084%=      5-min Rain = 0
KTH1 050744Z 01004KT 10/07 A3009 RMK A01 T00960072  RH  085%=      5-min Rain = 0
KTH1 050745Z 35004KT 10/07 A3009 RMK A01 T00960072  RH  085%=      5-min Rain = 0
KTH1 050746Z 36005KT 10/07 A3009 RMK A01 T00960072  RH  085%=      5-min Rain = 0
KTH1 050747Z 35005KT 10/07 A3009 RMK A01 T00950072  RH  085%=      5-min Rain = 0
KTH1 050748Z 01004KT 10/07 A3009 RMK A01 T00950072  RH  086%=      5-min Rain = 0
KTH1 050749Z 00004KT 10/07 A3009 RMK A01 T00950072  RH  086%=      5-min Rain = 0
KTH1 050750Z 01004KT 10/07 A3009 RMK A01 T00950073  RH  086%=      5-min Rain = 0
KTH1 050751Z 35005KT 10/07 A3009 RMK A01 T00950073  RH  086%=      5-min Rain = 0
KTH1 050752Z 00004KT 10/07 A3009 RMK A01 T00950073  RH  086%=      5-min Rain = 0
KTH1 050753Z 36004KT 10/07 A3009 RMK A01 T00950073  RH  086%=      5-min Rain = 0
KTH1 050754Z 36004KT 10/07 A3009 RMK A01 T00950073  RH  086%=      5-min Rain = 0
KTH1 050755Z 00004KT 10/07 A3009 RMK A01 T00950073  RH  086%=      5-min Rain = 0
KTH1 050756Z 00003KT 10/07 A3009 RMK A01 T00950073  RH  086%=      5-min Rain = 0
KTH1 050757Z 00004KT 10/07 A3009 RMK A01 T00950073  RH  086%=      5-min Rain = 0
KTH1 050758Z 00003KT 10/07 A3009 RMK A01 T00950073  RH  086%=      5-min Rain = 0
KTH1 050759Z 00004KT 10/07 A3009 RMK A01 T00950073  RH  086%=      5-min Rain = 0
KTH1 050800Z 00005KT 10/07 A3009 RMK A01 T00950073  RH  086%=      5-min Rain = 0
KTH1 050801Z 36004KT 10/07 A3009 RMK A01 T00950073  RH  087%=      5-min Rain = 0
KTH1 050802Z 36004KT 09/07 A3009 RMK A01 T00940073  RH  086%=      5-min Rain = 0
KTH1 050803Z 36005KT 10/07 A3009 RMK A01 T00950073  RH  086%=      5-min Rain = 0
KTH1 050804Z 00004KT 10/07 A3009 RMK A01 T00950073  RH  086%=      5-min Rain = 0
KTH1 050805Z 36004KT 09/07 A3009 RMK A01 T00940073  RH  086%=      5-min Rain = 0
KTH1 050806Z 36004KT 09/07 A3009 RMK A01 T00940073  RH  087%=      5-min Rain = 0
KTH1 050807Z 36004KT 09/07 A3009 RMK A01 T00940072  RH  087%=      5-min Rain = 0
KTH1 050808Z 35004KT 09/07 A3009 RMK A01 T00930072  RH  087%=      5-min Rain = 0
KTH1 050809Z 35004KT 09/07 A3009 RMK A01 T00930073  RH  087%=      5-min Rain = 0
KTH1 050810Z 35003KT 09/07 A3009 RMK A01 T00930073  RH  087%=      5-min Rain = 0
KTH1 050811Z 35004KT 09/07 A3009 RMK A01 T00930073  RH  087%=      5-min Rain = 0
KTH1 050812Z 35004KT 09/07 A3009 RMK A01 T00930073  RH  087%=      5-min Rain = 0
KTH1 050813Z 35004KT 09/07 A3009 RMK A01 T00930073  RH  087%=      5-min Rain = 0
KTH1 050814Z 36003KT 09/07 A3009 RMK A01 T00930073  RH  088%=      5-min Rain = 0
KTH1 050815Z 36004KT 09/07 A3009 RMK A01 T00930073  RH  088%=      5-min Rain = 0
KTH1 050816Z 35004KT 09/07 A3009 RMK A01 T00920073  RH  088%=      5-min Rain = 0
KTH1 050817Z 35004KT 09/07 A3009 RMK A01 T00920073  RH  088%=      5-min Rain = 0
KTH1 050818Z 35004KT 09/07 A3009 RMK A01 T00920073  RH  088%=      5-min Rain = 0
KTH1 050819Z 35004KT 09/07 A3009 RMK A01 T00920073  RH  088%=      5-min Rain = 0
KTH1 050820Z 35004KT 09/07 A3009 RMK A01 T00920073  RH  088%=      5-min Rain = 0
KTH1 050821Z 36004KT 09/07 A3009 RMK A01 T00920073  RH  088%=      5-min Rain = 0
KTH1 050822Z 00004KT 09/07 A3009 RMK A01 T00910073  RH  088%=      5-min Rain = 0
KTH1 050823Z 36004KT 09/07 A3009 RMK A01 T00910073  RH  088%=      5-min Rain = 0
KTH1 050824Z 36003KT 09/07 A3009 RMK A01 T00920073  RH  088%=      5-min Rain = 0
KTH1 050825Z 35004KT 09/07 A301 RMK A01 T00910073  RH  088%=      5-min Rain = 0
KTH1 050826Z 35004KT 09/07 A301 RMK A01 T00910073  RH  089%=      5-min Rain = 0
KTH1 050827Z 35005KT 09/07 A301 RMK A01 T00920074  RH  089%=      5-min Rain = 0
KTH1 050828Z 35004KT 09/07 A301 RMK A01 T00920073  RH  088%=      5-min Rain = 0
KTH1 050829Z 36005KT 09/07 A301 RMK A01 T00910074  RH  089%=      5-min Rain = 0
KTH1 050830Z 01004KT 09/07 A301 RMK A01 T00920074  RH  089%=      5-min Rain = 0
KTH1 050831Z 00004KT 09/07 A301 RMK A01 T00910073  RH  089%=      5-min Rain = 0
KTH1 050832Z 01004KT 09/07 A301 RMK A01 T00910074  RH  089%=      5-min Rain = 0
KTH1 050833Z 36004KT 09/07 A301 RMK A01 T00910074  RH  089%=      5-min Rain = 0
KTH1 050834Z 01005KT 09/07 A301 RMK A01 T00910074  RH  089%=      5-min Rain = 0
KTH1 050835Z 00004KT 09/07 A301 RMK A01 T00920074  RH  089%=      5-min Rain = 0
KTH1 050836Z 01004KT 09/07 A301 RMK A01 T00920074  RH  089%=      5-min Rain = 0
KTH1 050837Z 00003KT 09/07 A301 RMK A01 T00920074  RH  089%=      5-min Rain = 0
KTH1 050838Z 00004KT 09/07 A301 RMK A01 T00910074  RH  089%=      5-min Rain = 0
KTH1 050839Z 00003KT 09/07 A301 RMK A01 T00910074  RH  089%=      5-min Rain = 0
KTH1 050840Z 36004KT 09/07 A301 RMK A01 T00920074  RH  089%=      5-min Rain = 0
KTH1 050841Z 36004KT 09/08 A301 RMK A01 T00920075  RH  089%=      5-min Rain = 0
KTH1 050842Z 35004KT 09/08 A301 RMK A01 T00920075  RH  089%=      5-min Rain = 0
KTH1 050843Z 35005KT 09/08 A301 RMK A01 T00920075  RH  089%=      5-min Rain = 0
KTH1 050844Z 36005KT 09/07 A301 RMK A01 T00920074  RH  089%=      5-min Rain = 0
KTH1 050845Z 00005KT 09/07 A301 RMK A01 T00920074  RH  089%=      5-min Rain = 0
KTH1 050846Z 00005KT 09/07 A3009 RMK A01 T00910073  RH  089%=      5-min Rain = 0
KTH1 050847Z 00005KT 09/07 A301 RMK A01 T00900073  RH  089%=      5-min Rain = 0
KTH1 050848Z 36005KT 09/07 A301 RMK A01 T00900073  RH  089%=      5-min Rain = 0
KTH1 050849Z 36005KT 09/07 A301 RMK A01 T00900074  RH  090%=      5-min Rain = 0
KTH1 050850Z 35004KT 09/07 A301 RMK A01 T00900074  RH  090%=      5-min Rain = 0
KTH1 050851Z 36004KT 09/07 A301 RMK A01 T00900074  RH  090%=      5-min Rain = 0
KTH1 050852Z 35006KT 09/07 A301 RMK A01 T00900074  RH  090%=      5-min Rain = 0
KTH1 050853Z 36005KT 09/07 A301 RMK A01 T00900074  RH  090%=      5-min Rain = 0
KTH1 050854Z 36006KT 09/08 A3009 RMK A01 T00900075  RH  090%=      5-min Rain = 0
KTH1 050855Z 00005KT 09/08 A3009 RMK A01 T00900075  RH  090%=      5-min Rain = 0
KTH1 050856Z 00005KT 09/08 A3009 RMK A01 T00910075  RH  090%=      5-min Rain = 0
KTH1 050857Z 36004KT 09/08 A301 RMK A01 T00900075  RH  090%=      5-min Rain = 0
KTH1 050858Z 35005KT 09/08 A301 RMK A01 T00900075  RH  090%=      5-min Rain = 0
KTH1 050859Z 36004KT 09/08 A301 RMK A01 T00900075  RH  090%=      5-min Rain = 0
KTH1 050900Z 36004KT 09/08 A301 RMK A01 T00900075  RH  090%=      5-min Rain = 0
KTH1 050901Z 36005KT 09/07 A301 RMK A01 T00900074  RH  090%=      5-min Rain = 0
KTH1 050902Z 36005KT 09/08 A301 RMK A01 T00900075  RH  091%=      5-min Rain = 0
KTH1 050903Z 36006KT 09/08 A301 RMK A01 T00900075  RH  091%=      5-min Rain = 0
KTH1 050904Z 35006KT 09/08 A301 RMK A01 T00900075  RH  091%=      5-min Rain = 0
KTH1 050905Z 00005KT 09/08 A301 RMK A01 T00900076  RH  091%=      5-min Rain = 0
KTH1 050906Z 01005KT 09/08 A301 RMK A01 T00910076  RH  091%=      5-min Rain = 0
KTH1 050907Z 00005KT 09/08 A301 RMK A01 T00920077  RH  091%=      5-min Rain = 0
KTH1 050908Z 01006KT 09/08 A301 RMK A01 T00920077  RH  091%=      5-min Rain = 0
KTH1 050909Z 00006KT 09/08 A301 RMK A01 T00920077  RH  090%=      5-min Rain = 0
KTH1 050910Z 36006KT 09/08 A301 RMK A01 T00930078  RH  090%=      5-min Rain = 0
KTH1 050911Z 00005KT 09/08 A301 RMK A01 T00940078  RH  090%=      5-min Rain = 0
KTH1 050912Z 00006KT 09/08 A301 RMK A01 T00940078  RH  090%=      5-min Rain = 0
KTH1 050913Z 01006KT 10/08 A301 RMK A01 T00950079  RH  090%=      5-min Rain = 0
KTH1 050914Z 00007KT 10/08 A301 RMK A01 T00950079  RH  090%=      5-min Rain = 0
KTH1 050915Z 00005KT 10/08 A301 RMK A01 T00960080  RH  090%=      5-min Rain = 0
KTH1 050916Z 00007KT 10/08 A301 RMK A01 T00970080  RH  089%=      5-min Rain = 0
KTH1 050917Z 01005KT 10/08 A301 RMK A01 T00970080  RH  089%=      5-min Rain = 0
KTH1 050918Z 36006KT 10/08 A301 RMK A01 T00970080  RH  089%=      5-min Rain = 0
KTH1 050919Z 35005KT 10/08 A301 RMK A01 T00970080  RH  089%=      5-min Rain = 0
KTH1 050920Z 36005KT 10/08 A301 RMK A01 T00970080  RH  089%=      5-min Rain = 0
KTH1 050921Z 00005KT 10/08 A301 RMK A01 T00970080  RH  089%=      5-min Rain = 0
KTH1 050922Z 35006KT 10/08 A301 RMK A01 T00970080  RH  089%=      5-min Rain = 0
KTH1 050923Z 35006KT 10/08 A301 RMK A01 T00970080  RH  089%=      5-min Rain = 0
KTH1 050924Z 35006KT 10/08 A301 RMK A01 T00960080  RH  089%=      5-min Rain = 0
KTH1 050925Z 35005KT 10/08 A301 RMK A01 T00960079  RH  089%=      5-min Rain = 0
KTH1 050926Z 34005KT 10/08 A301 RMK A01 T00950079  RH  089%=      5-min Rain = 0
KTH1 050927Z 36005KT 10/08 A301 RMK A01 T00950078  RH  089%=      5-min Rain = 0
KTH1 050928Z 35005KT 09/08 A301 RMK A01 T00940077  RH  089%=      5-min Rain = 0
KTH1 050929Z 34005KT 09/08 A301 RMK A01 T00930077  RH  090%=      5-min Rain = 0
KTH1 050930Z 35004KT 09/08 A301 RMK A01 T00930077  RH  090%=      5-min Rain = 0
KTH1 050931Z 35006KT 09/08 A301 RMK A01 T00920076  RH  090%=      5-min Rain = 0
KTH1 050932Z 35006KT 09/08 A301 RMK A01 T00910076  RH  090%=      5-min Rain = 0
KTH1 050933Z 35006KT 09/08 A3011 RMK A01 T00910076  RH  090%=      5-min Rain = 0
KTH1 050934Z 35005KT 09/08 A3011 RMK A01 T00910076  RH  091%=      5-min Rain = 0
KTH1 050935Z 35005KT 09/08 A3011 RMK A01 T00910076  RH  091%=      5-min Rain = 0
KTH1 050936Z 35007KT 09/08 A3011 RMK A01 T00910076  RH  091%=      5-min Rain = 0
KTH1 050937Z 34004KT 09/08 A3011 RMK A01 T00910076  RH  091%=      5-min Rain = 0
KTH1 050938Z 35004KT 09/08 A3011 RMK A01 T00910076  RH  091%=      5-min Rain = 0
KTH1 050939Z 34006KT 09/08 A3011 RMK A01 T00910076  RH  091%=      5-min Rain = 0
KTH1 050940Z 34005KT 09/08 A3011 RMK A01 T00900076  RH  091%=      5-min Rain = 0
KTH1 050941Z 35004KT 09/08 A3011 RMK A01 T00900076  RH  091%=      5-min Rain = 0
KTH1 050942Z 36004KT 09/08 A3011 RMK A01 T00900076  RH  091%=      5-min Rain = 0
KTH1 050943Z 35005KT 09/08 A3011 RMK A01 T00900076  RH  091%=      5-min Rain = 0
KTH1 050944Z 34005KT 09/08 A3011 RMK A01 T00900075  RH  091%=      5-min Rain = 0
KTH1 050945Z 35005KT 09/08 A3012 RMK A01 T00900075  RH  091%=      5-min Rain = 0
KTH1 050946Z 36006KT 09/08 A3012 RMK A01 T00890075  RH  091%=      5-min Rain = 0
KTH1 050947Z 35005KT 09/08 A3012 RMK A01 T00900075  RH  091%=      5-min Rain = 0
KTH1 050948Z 34005KT 09/08 A3012 RMK A01 T00900076  RH  091%=      5-min Rain = 0
KTH1 050949Z 35005KT 09/08 A3012 RMK A01 T00900075  RH  090%=      5-min Rain = 0
KTH1 050950Z 35004KT 09/08 A3012 RMK A01 T00900075  RH  090%=      5-min Rain = 0
KTH1 050951Z 36007KT 09/08 A3012 RMK A01 T00900075  RH  090%=      5-min Rain = 0
KTH1 050952Z 36005KT 09/08 A3012 RMK A01 T00900075  RH  091%=      5-min Rain = 0
KTH1 050953Z 36005KT 09/08 A3012 RMK A01 T00900075  RH  090%=      5-min Rain = 0
KTH1 050954Z 36006KT 09/08 A3012 RMK A01 T00900075  RH  090%=      5-min Rain = 0
KTH1 050955Z 35007KT 09/07 A3012 RMK A01 T00890074  RH  090%=      5-min Rain = 0
KTH1 050956Z 35006KT 09/07 A3012 RMK A01 T00890074  RH  090%=      5-min Rain = 0
KTH1 050957Z 36004KT 09/07 A3012 RMK A01 T00890074  RH  090%=      5-min Rain = 0
KTH1 050958Z 35005KT 09/07 A3012 RMK A01 T00890074  RH  090%=      5-min Rain = 0
KTH1 050959Z 35005KT 09/07 A3012 RMK A01 T00880073  RH  091%=      5-min Rain = 0
KTH1 051000Z 35006KT 09/07 A3013 RMK A01 T00880073  RH  091%=      5-min Rain = 0
KTH1 051001Z 36005KT 09/07 A3013 RMK A01 T00880074  RH  091%=      5-min Rain = 0
KTH1 051002Z 35006KT 09/07 A3013 RMK A01 T00880074  RH  091%=      5-min Rain = 0
KTH1 051003Z 34005KT 09/07 A3013 RMK A01 T00880074  RH  091%=      5-min Rain = 0
KTH1 051004Z 35007KT 09/07 A3013 RMK A01 T00880074  RH  091%=      5-min Rain = 0
KTH1 051005Z 35006KT 09/07 A3013 RMK A01 T00880074  RH  091%=      5-min Rain = 0
KTH1 051006Z 35006KT 09/07 A3013 RMK A01 T00880074  RH  091%=      5-min Rain = 0
KTH1 051007Z 35007KT 09/07 A3013 RMK A01 T00880074  RH  091%=      5-min Rain = 0
KTH1 051008Z 35006KT 09/07 A3013 RMK A01 T00880074  RH  091%=      5-min Rain = 0
KTH1 051009Z 35007KT 09/07 A3013 RMK A01 T00880074  RH  091%=      5-min Rain = 0
KTH1 051010Z 35006KT 09/07 A3013 RMK A01 T00880074  RH  091%=      5-min Rain = 0
KTH1 051011Z 34004KT 09/07 A3013 RMK A01 T00880074  RH  091%=      5-min Rain = 0
KTH1 051012Z 35005KT 09/07 A3013 RMK A01 T00880074  RH  091%=      5-min Rain = 0
KTH1 051013Z 35006G11KT 09/07 A3013 RMK A01 T00880074  RH  091%=      5-min Rain = 0
KTH1 051014Z 35007KT 09/07 A3013 RMK A01 T00880074  RH  091%=      5-min Rain = 0
KTH1 051015Z 35005KT 09/07 A3013 RMK A01 T00880074  RH  091%=      5-min Rain = 0
KTH1 051016Z 35006KT 09/07 A3013 RMK A01 T00880074  RH  091%=      5-min Rain = 0
KTH1 051017Z 35007KT 09/07 A3013 RMK A01 T00880074  RH  091%=      5-min Rain = 0
KTH1 051018Z 35006KT 09/07 A3013 RMK A01 T00880074  RH  091%=      5-min Rain = 0
KTH1 051019Z 35006KT 09/07 A3013 RMK A01 T00880074  RH  091%=      5-min Rain = 0
KTH1 051020Z 34006KT 09/07 A3013 RMK A01 T00880074  RH  091%=      5-min Rain = 0
KTH1 051021Z 35006KT 09/07 A3014 RMK A01 T00880074  RH  091%=      5-min Rain = 0
KTH1 051022Z 35006KT 09/07 A3014 RMK A01 T00890074  RH  091%=      5-min Rain = 0
KTH1 051023Z 35007KT 09/07 A3014 RMK A01 T00890074  RH  091%=      5-min Rain = 0
KTH1 051024Z 35007KT 09/08 A3014 RMK A01 T00890075  RH  091%=      5-min Rain = 0
KTH1 051025Z 36006KT 09/08 A3014 RMK A01 T00900075  RH  090%=      5-min Rain = 0
KTH1 051026Z 35007KT 09/08 A3014 RMK A01 T00900075  RH  090%=      5-min Rain = 0
KTH1 051027Z 36009KT 09/08 A3014 RMK A01 T00900075  RH  090%=      5-min Rain = 0
KTH1 051028Z 00008KT 09/08 A3014 RMK A01 T00910075  RH  090%=      5-min Rain = 0
KTH1 051029Z 00007KT 09/08 A3014 RMK A01 T00910075  RH  089%=      5-min Rain = 0
KTH1 051030Z 00008KT 09/08 A3014 RMK A01 T00920075  RH  089%=      5-min Rain = 0
KTH1 051031Z 00005KT 09/08 A3014 RMK A01 T00920075  RH  089%=      5-min Rain = 0
KTH1 051032Z 36007KT 09/08 A3014 RMK A01 T00920075  RH  089%=      5-min Rain = 0
KTH1 051033Z 00005KT 09/08 A3014 RMK A01 T00920075  RH  089%=      5-min Rain = 0
KTH1 051034Z 00005G10KT 09/08 A3014 RMK A01 T00930075  RH  089%=      5-min Rain = 0
KTH1 051035Z 00008KT 09/08 A3014 RMK A01 T00930075  RH  089%=      5-min Rain = 0
KTH1 051036Z 00006KT 09/08 A3014 RMK A01 T00930075  RH  088%=      5-min Rain = 0
KTH1 051037Z 01007KT 09/08 A3014 RMK A01 T00940075  RH  088%=      5-min Rain = 0
KTH1 051038Z 00007G12KT 09/08 A3014 RMK A01 T00940075  RH  088%=      5-min Rain = 0
KTH1 051039Z 36007KT 09/08 A3014 RMK A01 T00940075  RH  088%=      5-min Rain = 0
KTH1 051040Z 01007G13KT 09/08 A3014 RMK A01 T00940075  RH  088%=      5-min Rain = 0
KTH1 051041Z 35007KT 09/08 A3014 RMK A01 T00940075  RH  088%=      5-min Rain = 0
KTH1 051042Z 35008KT 10/08 A3014 RMK A01 T00950075  RH  087%=      5-min Rain = 0
KTH1 051043Z 00009KT 10/08 A3014 RMK A01 T00950075  RH  087%=      5-min Rain = 0
KTH1 051044Z 01009KT 10/07 A3015 RMK A01 T00950074  RH  087%=      5-min Rain = 0
KTH1 051045Z 36008KT 10/08 A3015 RMK A01 T00950075  RH  087%=      5-min Rain = 0
KTH1 051046Z 36008KT 10/07 A3015 RMK A01 T00950074  RH  087%=      5-min Rain = 0
KTH1 051047Z 35009KT 10/07 A3015 RMK A01 T00950074  RH  087%=      5-min Rain = 0
KTH1 051048Z 00006KT 10/08 A3015 RMK A01 T00960075  RH  087%=      5-min Rain = 0
KTH1 051049Z 36008KT 10/07 A3015 RMK A01 T00960074  RH  087%=      5-min Rain = 0
KTH1 051050Z 01005G10KT 10/07 A3015 RMK A01 T00960074  RH  087%=      5-min Rain = 0
KTH1 051051Z 01009KT 10/07 A3015 RMK A01 T00960074  RH  086%=      5-min Rain = 0
KTH1 051052Z 01006KT 10/07 A3015 RMK A01 T00960074  RH  086%=      5-min Rain = 0
KTH1 051053Z 01008KT 10/07 A3015 RMK A01 T00960074  RH  086%=      5-min Rain = 0
KTH1 051054Z 01004G9KT 10/07 A3015 RMK A01 T00960074  RH  086%=      5-min Rain = 0
KTH1 051055Z 01009KT 10/07 A3015 RMK A01 T00960073  RH  086%=      5-min Rain = 0
KTH1 051056Z 36006KT 10/07 A3015 RMK A01 T00960073  RH  086%=      5-min Rain = 0
KTH1 051057Z 00005G10KT 10/07 A3015 RMK A01 T00960073  RH  086%=      5-min Rain = 0
KTH1 051058Z 01005KT 10/07 A3015 RMK A01 T00960073  RH  086%=      5-min Rain = 0
KTH1 051059Z 01005G10KT 10/07 A3015 RMK A01 T00960073  RH  086%=      5-min Rain = 0
KTH1 051100Z 01007KT 10/07 A3015 RMK A01 T00960073  RH  086%=      5-min Rain = 0
KTH1 051101Z 00008KT 10/07 A3016 RMK A01 T00960073  RH  085%=      5-min Rain = 0
KTH1 051102Z 35008KT 10/07 A3015 RMK A01 T00960072  RH  085%=      5-min Rain = 0
KTH1 051103Z 00007KT 10/07 A3016 RMK A01 T00960073  RH  085%=      5-min Rain = 0
KTH1 051104Z 00009KT 10/07 A3016 RMK A01 T00970073  RH  085%=      5-min Rain = 0
KTH1 051105Z 01007G12KT 10/07 A3016 RMK A01 T00970072  RH  085%=      5-min Rain = 0
KTH1 051106Z 01007KT 10/07 A3016 RMK A01 T00970072  RH  085%=      5-min Rain = 0
KTH1 051107Z 01008KT 10/07 A3016 RMK A01 T00970072  RH  085%=      5-min Rain = 0
KTH1 051108Z 01008KT 10/07 A3016 RMK A01 T00970072  RH  085%=      5-min Rain = 0
KTH1 051109Z 00009KT 10/07 A3016 RMK A01 T00970072  RH  085%=      5-min Rain = 0
KTH1 051110Z 00008KT 10/07 A3016 RMK A01 T00970072  RH  085%=      5-min Rain = 0
KTH1 051111Z 36006KT 10/07 A3016 RMK A01 T00970072  RH  085%=      5-min Rain = 0
KTH1 051112Z 00006KT 10/07 A3016 RMK A01 T00970072  RH  085%=      5-min Rain = 0
KTH1 051113Z 00008KT 10/07 A3016 RMK A01 T00970072  RH  085%=      5-min Rain = 0
KTH1 051114Z 36007G12KT 10/07 A3016 RMK A01 T00970072  RH  084%=      5-min Rain = 0
KTH1 051115Z 00009KT 10/07 A3016 RMK A01 T00970072  RH  084%=      5-min Rain = 0
KTH1 051116Z 01007KT 10/07 A3016 RMK A01 T00970072  RH  084%=      5-min Rain = 0
KTH1 051117Z 00009KT 10/07 A3016 RMK A01 T00970072  RH  084%=      5-min Rain = 0
KTH1 051118Z 01005KT 10/07 A3016 RMK A01 T00970072  RH  084%=      5-min Rain = 0
KTH1 051119Z 01009KT 10/07 A3016 RMK A01 T00970072  RH  084%=      5-min Rain = 0
KTH1 051120Z 01010KT 10/07 A3016 RMK A01 T00980072  RH  084%=      5-min Rain = 0
KTH1 051121Z 02009KT 10/07 A3016 RMK A01 T00980072  RH  084%=      5-min Rain = 0
KTH1 051122Z 36005KT 10/07 A3016 RMK A01 T00980071  RH  083%=      5-min Rain = 0
KTH1 051123Z 00007G12KT 10/07 A3016 RMK A01 T00980072  RH  083%=      5-min Rain = 0
KTH1 051124Z 01006G12KT 10/07 A3016 RMK A01 T00990072  RH  083%=      5-min Rain = 0
KTH1 051125Z 01006KT 10/07 A3016 RMK A01 T00990071  RH  083%=      5-min Rain = 0
KTH1 051126Z 02008KT 10/07 A3017 RMK A01 T00990071  RH  083%=      5-min Rain = 0
KTH1 051127Z 01009KT 10/07 A3017 RMK A01 T00990071  RH  083%=      5-min Rain = 0
KTH1 051128Z 01007KT 10/07 A3017 RMK A01 T00990071  RH  083%=      5-min Rain = 0
KTH1 051129Z 02005KT 10/07 A3017 RMK A01 T00990071  RH  083%=      5-min Rain = 0
KTH1 051130Z 01007G12KT 10/07 A3017 RMK A01 T01000071  RH  083%=      5-min Rain = 0
KTH1 051131Z 00004KT 10/07 A3017 RMK A01 T00990071  RH  082%=      5-min Rain = 0
KTH1 051132Z 01007KT 10/07 A3017 RMK A01 T00990071  RH  083%=      5-min Rain = 0
KTH1 051133Z 01010KT 10/07 A3017 RMK A01 T01000071  RH  082%=      5-min Rain = 0
KTH1 051134Z 01009KT 10/07 A3017 RMK A01 T01000070  RH  082%=      5-min Rain = 0
KTH1 051135Z 00007KT 10/07 A3017 RMK A01 T01000070  RH  082%=      5-min Rain = 0
KTH1 051136Z 01008KT 10/07 A3017 RMK A01 T01000071  RH  082%=      5-min Rain = 0
KTH1 051137Z 01008KT 10/07 A3017 RMK A01 T01000070  RH  082%=      5-min Rain = 0
KTH1 051138Z 00008KT 10/07 A3017 RMK A01 T01000070  RH  082%=      5-min Rain = 0
KTH1 051139Z 36008KT 10/07 A3017 RMK A01 T01000070  RH  081%=      5-min Rain = 0
KTH1 051140Z 01007G14KT 10/07 A3017 RMK A01 T01000069  RH  081%=      5-min Rain = 0
KTH1 051141Z 01006KT 10/07 A3017 RMK A01 T01000070  RH  081%=      5-min Rain = 0
KTH1 051142Z 36006KT 10/07 A3017 RMK A01 T01000070  RH  081%=      5-min Rain = 0
KTH1 051143Z 01007KT 10/07 A3017 RMK A01 T01000069  RH  081%=      5-min Rain = 0
KTH1 051144Z 01006G11KT 10/07 A3017 RMK A01 T01000069  RH  081%=      5-min Rain = 0
KTH1 051145Z 01009KT 10/07 A3017 RMK A01 T01000069  RH  081%=      5-min Rain = 0
KTH1 051146Z 01006G11KT 10/07 A3017 RMK A01 T01000069  RH  081%=      5-min Rain = 0
KTH1 051147Z 01009G15KT 10/07 A3017 RMK A01 T01000069  RH  081%=      5-min Rain = 0
KTH1 051148Z 01007KT 10/07 A3017 RMK A01 T01010069  RH  081%=      5-min Rain = 0
KTH1 051149Z 01009KT 10/07 A3017 RMK A01 T01010069  RH  080%=      5-min Rain = 0
KTH1 051150Z 01007KT 10/07 A3017 RMK A01 T01010068  RH  080%=      5-min Rain = 0
KTH1 051151Z 01009KT 10/07 A3017 RMK A01 T01010069  RH  080%=      5-min Rain = 0
KTH1 051152Z 00007KT 10/07 A3017 RMK A01 T01000068  RH  080%=      5-min Rain = 0
KTH1 051153Z 01007KT 10/07 A3018 RMK A01 T01010068  RH  080%=      5-min Rain = 0
KTH1 051154Z 01005KT 10/07 A3018 RMK A01 T01010068  RH  080%=      5-min Rain = 0
KTH1 051155Z 00005KT 10/07 A3018 RMK A01 T01010069  RH  080%=      5-min Rain = 0
KTH1 051156Z 01005KT 10/07 A3018 RMK A01 T01010069  RH  081%=      5-min Rain = 0
KTH1 051157Z 01007G13KT 10/07 A3018 RMK A01 T01010069  RH  081%=      5-min Rain = 0
KTH1 051158Z 01010KT 10/07 A3018 RMK A01 T01010068  RH  080%=      5-min Rain = 0
KTH1 051159Z 01009KT 10/07 A3018 RMK A01 T01010068  RH  080%=      5-min Rain = 0
KTH1 051200Z 00006KT 10/07 A3018 RMK A01 T01010068  RH  080%=      5-min Rain = 0
KTH1 051201Z 00005KT 10/07 A3018 RMK A01 T01010068  RH  080%=      5-min Rain = 0
KTH1 051202Z 36005KT 10/07 A3018 RMK A01 T01010068  RH  080%=      5-min Rain = 0
KTH1 051203Z 00008KT 10/07 A3018 RMK A01 T01010068  RH  080%=      5-min Rain = 0
KTH1 051204Z 36006G11KT 10/07 A3018 RMK A01 T01010068  RH  080%=      5-min Rain = 0
KTH1 051205Z 00004KT 10/07 A3018 RMK A01 T01010068  RH  080%=      5-min Rain = 0
KTH1 051206Z 00007KT 10/07 A3018 RMK A01 T01010068  RH  080%=      5-min Rain = 0
KTH1 051207Z 35007KT 10/07 A3018 RMK A01 T01010068  RH  080%=      5-min Rain = 0
KTH1 051208Z 36006KT 10/07 A3018 RMK A01 T01010067  RH  080%=      5-min Rain = 0
KTH1 051209Z 00007G13KT 10/07 A3018 RMK A01 T01010067  RH  080%=      5-min Rain = 0
KTH1 051210Z 01004KT 10/07 A3018 RMK A01 T01010067  RH  080%=      5-min Rain = 0
KTH1 051211Z 35008KT 10/07 A3018 RMK A01 T01010068  RH  080%=      5-min Rain = 0
KTH1 051212Z 01007KT 10/07 A3018 RMK A01 T01010067  RH  080%=      5-min Rain = 0
KTH1 051213Z 00008KT 10/07 A3018 RMK A01 T01010067  RH  079%=      5-min Rain = 0
KTH1 051214Z 35008KT 10/07 A3018 RMK A01 T01010067  RH  079%=      5-min Rain = 0
KTH1 051215Z 35009KT 10/07 A3018 RMK A01 T01010066  RH  079%=      5-min Rain = 0
KTH1 051216Z 01007KT 10/07 A3018 RMK A01 T01010066  RH  079%=      5-min Rain = 0
KTH1 051217Z 36009G14KT 10/07 A3018 RMK A01 T01010066  RH  079%=      5-min Rain = 0
KTH1 051218Z 00010KT 10/07 A3019 RMK A01 T01010066  RH  079%=      5-min Rain = 0
KTH1 051219Z 01005G11KT 10/07 A3019 RMK A01 T01010065  RH  079%=      5-min Rain = 0
KTH1 051220Z 36008KT 10/07 A3019 RMK A01 T01010066  RH  079%=      5-min Rain = 0
KTH1 051221Z 35010G15KT 10/07 A3019 RMK A01 T01010066  RH  079%=      5-min Rain = 0
KTH1 051222Z 00006KT 10/07 A3019 RMK A01 T01010065  RH  079%=      5-min Rain = 0
KTH1 051223Z 00006KT 10/07 A3019 RMK A01 T01010065  RH  079%=      5-min Rain = 0
KTH1 051224Z 01007G12KT 10/07 A3019 RMK A01 T01010066  RH  079%=      5-min Rain = 0
KTH1 051225Z 01007KT 10/07 A3019 RMK A01 T01010066  RH  079%=      5-min Rain = 0
KTH1 051226Z 01006KT 10/07 A3019 RMK A01 T01010066  RH  079%=      5-min Rain = 0
KTH1 051227Z 02009KT 10/07 A3019 RMK A01 T01010066  RH  079%=      5-min Rain = 0
KTH1 051228Z 01010KT 10/07 A3019 RMK A01 T01010066  RH  079%=      5-min Rain = 0
KTH1 051229Z 00008G13KT 10/07 A3019 RMK A01 T01010066  RH  079%=      5-min Rain = 0
KTH1 051230Z 01009G15KT 10/07 A3019 RMK A01 T01010066  RH  079%=      5-min Rain = 0
KTH1 051231Z 01007KT 10/07 A3019 RMK A01 T01010066  RH  079%=      5-min Rain = 0
KTH1 051232Z 01008KT 10/07 A3019 RMK A01 T01010067  RH  079%=      5-min Rain = 0
KTH1 051233Z 01009G14KT 10/07 A3019 RMK A01 T01010067  RH  080%=      5-min Rain = 0
KTH1 051234Z 01009KT 10/07 A3019 RMK A01 T01010067  RH  080%=      5-min Rain = 0
KTH1 051235Z 00006KT 10/07 A3019 RMK A01 T01010067  RH  080%=      5-min Rain = 0
KTH1 051236Z 02007G12KT 10/07 A3019 RMK A01 T01010067  RH  080%=      5-min Rain = 0
KTH1 051237Z 02009KT 10/07 A3019 RMK A01 T01010068  RH  080%=      5-min Rain = 0
KTH1 051238Z 02008KT 10/07 A3019 RMK A01 T01020068  RH  080%=      5-min Rain = 0
KTH1 051239Z 00007G12KT 10/07 A3019 RMK A01 T01010068  RH  080%=      5-min Rain = 0
KTH1 051240Z 01007KT 10/07 A3019 RMK A01 T01010068  RH  080%=      5-min Rain = 0
KTH1 051241Z 01009KT 10/07 A3019 RMK A01 T01010068  RH  080%=      5-min Rain = 0
KTH1 051242Z 02006KT 10/07 A3019 RMK A01 T01010067  RH  080%=      5-min Rain = 0
KTH1 051243Z 01007KT 10/07 A3019 RMK A01 T01010067  RH  080%=      5-min Rain = 0
KTH1 051244Z 02006KT 10/07 A3019 RMK A01 T01010068  RH  080%=      5-min Rain = 0
KTH1 051245Z 01008KT 10/07 A3019 RMK A01 T01010068  RH  080%=      5-min Rain = 0
KTH1 051246Z 01008KT 10/07 A3019 RMK A01 T01010068  RH  080%=      5-min Rain = 0
KTH1 051247Z 02009KT 10/07 A3019 RMK A01 T01010068  RH  080%=      5-min Rain = 0
KTH1 051248Z 01009KT 10/07 A3019 RMK A01 T01010068  RH  080%=      5-min Rain = 0
KTH1 051249Z 01008KT 10/07 A302 RMK A01 T01010068  RH  080%=      5-min Rain = 0
KTH1 051250Z 03008KT 10/07 A302 RMK A01 T01010068  RH  080%=      5-min Rain = 0
KTH1 051251Z 02010KT 10/07 A302 RMK A01 T01010068  RH  080%=      5-min Rain = 0
KTH1 051252Z 02009KT 10/07 A302 RMK A01 T01010067  RH  080%=      5-min Rain = 0
KTH1 051253Z 01006KT 10/07 A302 RMK A01 T01010067  RH  080%=      5-min Rain = 0
KTH1 051254Z 02006KT 10/07 A302 RMK A01 T01010068  RH  080%=      5-min Rain = 0
KTH1 051255Z 01006KT 10/07 A302 RMK A01 T01010067  RH  080%=      5-min Rain = 0
KTH1 051256Z 02005KT 10/07 A302 RMK A01 T01010067  RH  079%=      5-min Rain = 0
KTH1 051257Z 01007KT 10/07 A302 RMK A01 T01010067  RH  079%=      5-min Rain = 0
KTH1 051258Z 02009KT 10/07 A302 RMK A01 T01010067  RH  079%=      5-min Rain = 0
KTH1 051259Z 01007KT 10/07 A302 RMK A01 T01010066  RH  079%=      5-min Rain = 0
KTH1 051300Z 02006KT 10/07 A302 RMK A01 T01010067  RH  079%=      5-min Rain = 0
KTH1 051301Z 02009KT 10/07 A302 RMK A01 T01010066  RH  079%=      5-min Rain = 0
KTH1 051302Z 01005KT 10/07 A302 RMK A01 T01010067  RH  079%=      5-min Rain = 0
KTH1 051303Z 01006KT 10/07 A302 RMK A01 T01010067  RH  079%=      5-min Rain = 0
KTH1 051304Z 02007KT 10/07 A302 RMK A01 T01010067  RH  079%=      5-min Rain = 0
KTH1 051305Z 02008KT 10/07 A302 RMK A01 T01010067  RH  079%=      5-min Rain = 0
KTH1 051306Z 03007KT 10/07 A302 RMK A01 T01010068  RH  080%=      5-min Rain = 0
KTH1 051307Z 02005KT 10/07 A302 RMK A01 T01010068  RH  080%=      5-min Rain = 0
KTH1 051308Z 01005KT 10/07 A302 RMK A01 T01010068  RH  080%=      5-min Rain = 0
KTH1 051309Z 01009G15KT 10/07 A302 RMK A01 T01010068  RH  080%=      5-min Rain = 0
KTH1 051310Z 02008G13KT 10/07 A302 RMK A01 T01010068  RH  080%=      5-min Rain = 0
KTH1 051311Z 03008KT 10/07 A302 RMK A01 T01010068  RH  080%=      5-min Rain = 0
KTH1 051312Z 02008KT 10/07 A302 RMK A01 T01010067  RH  080%=      5-min Rain = 0
KTH1 051313Z 02007KT 10/07 A302 RMK A01 T01010067  RH  079%=      5-min Rain = 0
KTH1 051314Z 02007KT 10/07 A302 RMK A01 T01010067  RH  079%=      5-min Rain = 0
KTH1 051315Z 02007KT 10/07 A302 RMK A01 T01010067  RH  079%=      5-min Rain = 0
KTH1 051316Z 01007KT 10/07 A302 RMK A01 T01020067  RH  079%=      5-min Rain = 0
KTH1 051317Z 02008KT 10/07 A302 RMK A01 T01010067  RH  079%=      5-min Rain = 0
KTH1 051318Z 02005KT 10/07 A302 RMK A01 T01010067  RH  079%=      5-min Rain = 0
KTH1 051319Z 00005KT 10/07 A302 RMK A01 T01010067  RH  079%=      5-min Rain = 0
KTH1 051320Z 01006KT 10/07 A3021 RMK A01 T01010067  RH  079%=      5-min Rain = 0
KTH1 051321Z 02006G11KT 10/07 A3021 RMK A01 T01010067  RH  079%=      5-min Rain = 0
KTH1 051322Z 02006KT 10/07 A3021 RMK A01 T01010067  RH  079%=      5-min Rain = 0
KTH1 051323Z 01005KT 10/07 A3021 RMK A01 T01010067  RH  079%=      5-min Rain = 0
KTH1 051324Z 01004KT 10/07 A3021 RMK A01 T01010067  RH  079%=      5-min Rain = 0
KTH1 051325Z 36005KT 10/07 A3021 RMK A01 T01010067  RH  079%=      5-min Rain = 0
KTH1 051326Z 00007KT 10/07 A3021 RMK A01 T01010066  RH  079%=      5-min Rain = 0
KTH1 051327Z 02007KT 10/07 A3021 RMK A01 T01010066  RH  079%=      5-min Rain = 0
KTH1 051328Z 00006KT 10/07 A3021 RMK A01 T01010065  RH  079%=      5-min Rain = 0
KTH1 051329Z 01008KT 10/07 A3021 RMK A01 T01010065  RH  079%=      5-min Rain = 0
KTH1 051330Z 01008KT 10/07 A3021 RMK A01 T01010065  RH  078%=      5-min Rain = 0
KTH1 051331Z 01005KT 10/06 A3021 RMK A01 T01010064  RH  078%=      5-min Rain = 0
KTH1 051332Z 00007KT 10/06 A3021 RMK A01 T01000064  RH  078%=      5-min Rain = 0
KTH1 051333Z 00006KT 10/06 A3021 RMK A01 T01000064  RH  078%=      5-min Rain = 0
KTH1 051334Z 35004KT 10/06 A3021 RMK A01 T01000064  RH  078%=      5-min Rain = 0
KTH1 051335Z 01006KT 10/06 A3021 RMK A01 T01000064  RH  078%=      5-min Rain = 0
KTH1 051336Z 02004KT 10/06 A3021 RMK A01 T01000064  RH  078%=      5-min Rain = 0
KTH1 051337Z 01006KT 10/06 A3022 RMK A01 T01000064  RH  078%=      5-min Rain = 0
KTH1 051338Z 01007KT 10/06 A3022 RMK A01 T01000064  RH  078%=      5-min Rain = 0
KTH1 051339Z 01007KT 10/06 A3022 RMK A01 T01000063  RH  078%=      5-min Rain = 0
KTH1 051340Z 01007KT 10/06 A3022 RMK A01 T01000063  RH  078%=      5-min Rain = 0
KTH1 051341Z 00004KT 10/06 A3022 RMK A01 T01000063  RH  078%=      5-min Rain = 0
KTH1 051342Z 01007KT 10/06 A3022 RMK A01 T01000063  RH  078%=      5-min Rain = 0
KTH1 051343Z 00007KT 10/06 A3022 RMK A01 T01000063  RH  078%=      5-min Rain = 0
KTH1 051344Z 00006KT 10/06 A3022 RMK A01 T01000064  RH  078%=      5-min Rain = 0
KTH1 051345Z 00005KT 10/06 A3022 RMK A01 T01000064  RH  078%=      5-min Rain = 0
KTH1 051346Z 36010KT 10/06 A3022 RMK A01 T00990063  RH  078%=      5-min Rain = 0
KTH1 051347Z 01006KT 10/06 A3022 RMK A01 T00990063  RH  078%=      5-min Rain = 0
KTH1 051348Z 00004KT 10/06 A3022 RMK A01 T00990063  RH  078%=      5-min Rain = 0
KTH1 051349Z 02006KT 10/06 A3022 RMK A01 T00990063  RH  079%=      5-min Rain = 0
KTH1 051350Z 00005KT 10/06 A3022 RMK A01 T00990063  RH  078%=      5-min Rain = 0
KTH1 051351Z 36003KT 10/06 A3022 RMK A01 T00990063  RH  079%=      5-min Rain = 0
KTH1 051352Z 00006KT 10/06 A3022 RMK A01 T00990064  RH  079%=      5-min Rain = 0
KTH1 051353Z 01008G13KT 10/06 A3022 RMK A01 T00990064  RH  079%=      5-min Rain = 0
KTH1 051354Z 00007KT 10/06 A3022 RMK A01 T00990064  RH  079%=      5-min Rain = 0
KTH1 051355Z 01006KT 10/06 A3022 RMK A01 T00990064  RH  079%=      5-min Rain = 0
KTH1 051356Z 01010KT 10/07 A3023 RMK A01 T00990065  RH  079%=      5-min Rain = 0
KTH1 051357Z 01006KT 10/07 A3023 RMK A01 T00980065  RH  079%=      5-min Rain = 0
KTH1 051358Z 02006KT 10/07 A3023 RMK A01 T00980065  RH  080%=      5-min Rain = 0
KTH1 051359Z 02005KT 10/06 A3023 RMK A01 T00980064  RH  080%=      5-min Rain = 0
KTH1 051400Z 02008KT 10/06 A3023 RMK A01 T00980064  RH  080%=      5-min Rain = 0
KTH1 051401Z 02008KT 10/06 A3023 RMK A01 T00980064  RH  079%=      5-min Rain = 0
KTH1 051402Z 02008KT 10/06 A3023 RMK A01 T00980064  RH  079%=      5-min Rain = 0
KTH1 051403Z 01006KT 10/06 A3023 RMK A01 T00970064  RH  080%=      5-min Rain = 0
KTH1 051404Z 02007KT 10/06 A3023 RMK A01 T00980064  RH  080%=      5-min Rain = 0
KTH1 051405Z 01008KT 10/06 A3023 RMK A01 T00970064  RH  080%=      5-min Rain = 0
KTH1 051406Z 36007KT 10/06 A3023 RMK A01 T00970063  RH  079%=      5-min Rain = 0
KTH1 051407Z 00009KT 10/06 A3023 RMK A01 T00970063  RH  080%=      5-min Rain = 0
KTH1 051408Z 01007KT 10/06 A3023 RMK A01 T00970063  RH  080%=      5-min Rain = 0
KTH1 051409Z 02005KT 10/06 A3024 RMK A01 T00970064  RH  080%=      5-min Rain = 0
KTH1 051410Z 02005KT 10/06 A3024 RMK A01 T00970064  RH  080%=      5-min Rain = 0
KTH1 051411Z 02007KT 10/06 A3024 RMK A01 T00970064  RH  080%=      5-min Rain = 0
KTH1 051412Z 03007KT 10/06 A3024 RMK A01 T00970063  RH  080%=      5-min Rain = 0
KTH1 051413Z 03009KT 10/06 A3024 RMK A01 T00970063  RH  080%=      5-min Rain = 0
KTH1 051414Z 01007KT 10/06 A3024 RMK A01 T00960063  RH  080%=      5-min Rain = 0
KTH1 051415Z 02008KT 10/06 A3024 RMK A01 T00960063  RH  080%=      5-min Rain = 0
KTH1 051416Z 02006KT 10/06 A3024 RMK A01 T00950063  RH  080%=      5-min Rain = 0
KTH1 051417Z 02005KT 10/06 A3024 RMK A01 T00950063  RH  080%=      5-min Rain = 0
KTH1 051418Z 03006KT 10/06 A3024 RMK A01 T00950063  RH  080%=      5-min Rain = 0
KTH1 051419Z 01006KT 10/06 A3024 RMK A01 T00960063  RH  080%=      5-min Rain = 0
KTH1 051420Z 02005KT 10/06 A3024 RMK A01 T00960063  RH  080%=      5-min Rain = 0
KTH1 051421Z 35004KT 10/06 A3024 RMK A01 T00960063  RH  080%=      5-min Rain = 0
KTH1 051422Z 00008KT 10/06 A3024 RMK A01 T00960063  RH  080%=      5-min Rain = 0
KTH1 051423Z 00008KT 10/06 A3024 RMK A01 T00960062  RH  079%=      5-min Rain = 0
KTH1 051424Z 02009KT 10/06 A3024 RMK A01 T00960062  RH  080%=      5-min Rain = 0
KTH1 051425Z 02007KT 10/06 A3024 RMK A01 T00960063  RH  080%=      5-min Rain = 0
KTH1 051426Z 03007KT 10/06 A3024 RMK A01 T00950063  RH  080%=      5-min Rain = 0
KTH1 051427Z 01005KT 10/06 A3024 RMK A01 T00950063  RH  080%=      5-min Rain = 0
KTH1 051428Z 01006KT 10/06 A3024 RMK A01 T00950063  RH  080%=      5-min Rain = 0
KTH1 051429Z 01006KT 10/06 A3024 RMK A01 T00960063  RH  080%=      5-min Rain = 0
KTH1 051430Z 00006KT 10/06 A3024 RMK A01 T00960063  RH  080%=      5-min Rain = 0
KTH1 051431Z 01007KT 10/06 A3024 RMK A01 T00960063  RH  080%=      5-min Rain = 0
KTH1 051432Z 01006KT 10/06 A3024 RMK A01 T00960062  RH  079%=      5-min Rain = 0
KTH1 051433Z 01006KT 10/06 A3024 RMK A01 T00970062  RH  079%=      5-min Rain = 0
KTH1 051434Z 02006KT 10/06 A3024 RMK A01 T00960063  RH  080%=      5-min Rain = 0
KTH1 051435Z 03006KT 10/06 A3024 RMK A01 T00960063  RH  080%=      5-min Rain = 0
KTH1 051436Z 03006G11KT 10/06 A3024 RMK A01 T00960063  RH  080%=      5-min Rain = 0
KTH1 051437Z 02007KT 10/06 A3024 RMK A01 T00960063  RH  080%=      5-min Rain = 0
KTH1 051438Z 02009KT 10/06 A3024 RMK A01 T00960063  RH  080%=      5-min Rain = 0
KTH1 051439Z 02007KT 10/06 A3024 RMK A01 T00960062  RH  079%=      5-min Rain = 0
KTH1 051440Z 02006KT 10/06 A3024 RMK A01 T00960063  RH  080%=      5-min Rain = 0
KTH1 051441Z 01007KT 10/06 A3024 RMK A01 T00960063  RH  080%=      5-min Rain = 0
KTH1 051442Z 02006KT 10/06 A3024 RMK A01 T00960062  RH  080%=      5-min Rain = 0
KTH1 051443Z 03006KT 10/06 A3024 RMK A01 T00970063  RH  080%=      5-min Rain = 0
KTH1 051444Z 36005KT 10/06 A3024 RMK A01 T00970063  RH  080%=      5-min Rain = 0
KTH1 051445Z 01005KT 10/06 A3024 RMK A01 T00960063  RH  079%=      5-min Rain = 0
KTH1 051446Z 01005KT 10/06 A3024 RMK A01 T00970063  RH  079%=      5-min Rain = 0
KTH1 051447Z 04005KT 10/06 A3024 RMK A01 T00970063  RH  079%=      5-min Rain = 0
KTH1 051448Z 03006KT 10/06 A3024 RMK A01 T00980064  RH  079%=      5-min Rain = 0
KTH1 051449Z 03006KT 10/06 A3024 RMK A01 T00980063  RH  079%=      5-min Rain = 0
KTH1 051450Z 03007KT 10/06 A3024 RMK A01 T00980064  RH  079%=      5-min Rain = 0
KTH1 051451Z 03006KT 10/06 A3024 RMK A01 T00980064  RH  079%=      5-min Rain = 0
KTH1 051452Z 02007KT 10/06 A3024 RMK A01 T00980064  RH  079%=      5-min Rain = 0
KTH1 051453Z 02007G12KT 10/06 A3024 RMK A01 T00980064  RH  079%=      5-min Rain = 0
KTH1 051454Z 01008KT 10/06 A3024 RMK A01 T00980064  RH  079%=      5-min Rain = 0
KTH1 051455Z 01006KT 10/06 A3024 RMK A01 T00970063  RH  079%=      5-min Rain = 0
KTH1 051456Z 01006KT 10/06 A3024 RMK A01 T00970063  RH  080%=      5-min Rain = 0
KTH1 051457Z 01008KT 10/06 A3024 RMK A01 T00970064  RH  080%=      5-min Rain = 0
KTH1 051458Z 00007KT 10/06 A3024 RMK A01 T00970063  RH  079%=      5-min Rain = 0
KTH1 051459Z 02008KT 10/06 A3024 RMK A01 T00970063  RH  079%=      5-min Rain = 0
KTH1 051500Z 02008KT 10/06 A3024 RMK A01 T00970063  RH  079%=      5-min Rain = 0
KTH1 051501Z 03006KT 10/06 A3024 RMK A01 T00970064  RH  080%=      5-min Rain = 0
KTH1 051502Z 03006KT 10/06 A3024 RMK A01 T00960064  RH  080%=      5-min Rain = 0
KTH1 051503Z 03005KT 10/06 A3024 RMK A01 T00970064  RH  080%=      5-min Rain = 0
KTH1 051504Z 02005KT 10/06 A3024 RMK A01 T00970063  RH  079%=      5-min Rain = 0
KTH1 051505Z 35003G8KT 10/06 A3024 RMK A01 T00980064  RH  079%=      5-min Rain = 0
KTH1 051506Z 00004KT 10/06 A3024 RMK A01 T00990064  RH  079%=      5-min Rain = 0
KTH1 051507Z 02004KT 10/06 A3024 RMK A01 T00990064  RH  079%=      5-min Rain = 0
KTH1 051508Z 02003KT 10/06 A3025 RMK A01 T01000064  RH  079%=      5-min Rain = 0
KTH1 051509Z 01003KT 10/07 A3025 RMK A01 T01000065  RH  079%=      5-min Rain = 0
KTH1 051510Z 35004KT 10/07 A3025 RMK A01 T01010065  RH  078%=      5-min Rain = 0
KTH1 051511Z 00005KT 10/06 A3025 RMK A01 T01010064  RH  078%=      5-min Rain = 0
KTH1 051512Z 35006KT 10/06 A3025 RMK A01 T01010064  RH  078%=      5-min Rain = 0
KTH1 051513Z 34004KT 10/06 A3025 RMK A01 T01020064  RH  077%=      5-min Rain = 0
KTH1 051514Z 36005KT 10/06 A3025 RMK A01 T01020064  RH  077%=      5-min Rain = 0
KTH1 051515Z 36008KT 10/06 A3025 RMK A01 T01010064  RH  078%=      5-min Rain = 0
KTH1 051516Z 01006KT 10/06 A3025 RMK A01 T01000063  RH  078%=      5-min Rain = 0
KTH1 051517Z 00005KT 10/06 A3025 RMK A01 T00990064  RH  079%=      5-min Rain = 0
KTH1 051518Z 02007KT 10/06 A3025 RMK A01 T00990064  RH  079%=      5-min Rain = 0
KTH1 051519Z 03005KT 10/06 A3025 RMK A01 T00990064  RH  079%=      5-min Rain = 0
KTH1 051520Z 01005KT 10/06 A3025 RMK A01 T00980064  RH  079%=      5-min Rain = 0
KTH1 051521Z 02005KT 10/06 A3025 RMK A01 T00990064  RH  079%=      5-min Rain = 0
KTH1 051522Z 02006KT 10/06 A3025 RMK A01 T00990064  RH  079%=      5-min Rain = 0
KTH1 051523Z 02004KT 10/06 A3025 RMK A01 T00990064  RH  079%=      5-min Rain = 0
KTH1 051524Z 02007KT 10/07 A3025 RMK A01 T00990065  RH  079%=      5-min Rain = 0
KTH1 051525Z 02007KT 10/06 A3025 RMK A01 T01000064  RH  079%=      5-min Rain = 0
KTH1 051526Z 01007KT 10/06 A3025 RMK A01 T01000064  RH  078%=      5-min Rain = 0
KTH1 051527Z 02007KT 10/06 A3025 RMK A01 T01000064  RH  078%=      5-min Rain = 0
KTH1 051528Z 02006KT 10/06 A3025 RMK A01 T01000064  RH  078%=      5-min Rain = 0
KTH1 051529Z 03004KT 10/06 A3025 RMK A01 T01010064  RH  078%=      5-min Rain = 0
KTH1 051530Z 02006KT 10/06 A3025 RMK A01 T01010064  RH  078%=      5-min Rain = 0
KTH1 051531Z 01005KT 10/06 A3025 RMK A01 T01010063  RH  078%=      5-min Rain = 0
KTH1 051532Z 01005KT 10/06 A3025 RMK A01 T01010064  RH  078%=      5-min Rain = 0
KTH1 051533Z 01004KT 10/06 A3025 RMK A01 T01010063  RH  077%=      5-min Rain = 0
KTH1 051534Z 02005KT 10/06 A3025 RMK A01 T01010063  RH  077%=      5-min Rain = 0
KTH1 051535Z 35007KT 10/06 A3025 RMK A01 T01020064  RH  077%=      5-min Rain = 0
KTH1 051536Z 36007KT 10/07 A3025 RMK A01 T01020065  RH  077%=      5-min Rain = 0
KTH1 051537Z 01007KT 10/06 A3025 RMK A01 T01020064  RH  077%=      5-min Rain = 0
KTH1 051538Z 02008KT 10/06 A3025 RMK A01 T01020064  RH  077%=      5-min Rain = 0
KTH1 051539Z 00007KT 10/06 A3025 RMK A01 T01020064  RH  077%=      5-min Rain = 0
KTH1 051540Z 36005KT 10/06 A3025 RMK A01 T01020064  RH  078%=      5-min Rain = 0
KTH1 051541Z 02007KT 10/07 A3025 RMK A01 T01020065  RH  078%=      5-min Rain = 0
KTH1 051542Z 02008KT 10/07 A3025 RMK A01 T01020065  RH  078%=      5-min Rain = 0
KTH1 051543Z 02008KT 10/07 A3025 RMK A01 T01020065  RH  078%=      5-min Rain = 0
KTH1 051544Z 02008KT 10/07 A3025 RMK A01 T01020065  RH  078%=      5-min Rain = 0
KTH1 051545Z 02006KT 10/07 A3025 RMK A01 T01020065  RH  078%=      5-min Rain = 0
KTH1 051546Z 02006KT 10/07 A3025 RMK A01 T01020065  RH  078%=      5-min Rain = 0
KTH1 051547Z 02006KT 10/06 A3025 RMK A01 T01020064  RH  077%=      5-min Rain = 0
KTH1 051548Z 02006KT 10/06 A3025 RMK A01 T01020064  RH  077%=      5-min Rain = 0
KTH1 051549Z 02005KT 10/06 A3025 RMK A01 T01020064  RH  077%=      5-min Rain = 0
KTH1 051550Z 03003KT 10/07 A3025 RMK A01 T01030066  RH  077%=      5-min Rain = 0
KTH1 051551Z 02005KT 11/07 A3025 RMK A01 T01050066  RH  077%=      5-min Rain = 0
KTH1 051552Z 35005KT 11/07 A3025 RMK A01 T01050066  RH  077%=      5-min Rain = 0
KTH1 051553Z 34007KT 11/07 A3025 RMK A01 T01050066  RH  077%=      5-min Rain = 0
KTH1 051554Z 35007KT 11/07 A3025 RMK A01 T01050067  RH  077%=      5-min Rain = 0
KTH1 051555Z 34006KT 10/07 A3025 RMK A01 T01040066  RH  077%=      5-min Rain = 0
KTH1 051556Z 36005KT 10/07 A3025 RMK A01 T01040066  RH  077%=      5-min Rain = 0
KTH1 051557Z 00006KT 10/07 A3025 RMK A01 T01040066  RH  077%=      5-min Rain = 0
KTH1 051558Z 36006KT 10/07 A3025 RMK A01 T01040065  RH  077%=      5-min Rain = 0
KTH1 051559Z 00006KT 10/07 A3025 RMK A01 T01040065  RH  077%=      5-min Rain = 0
KTH1 051600Z 03005KT 10/07 A3025 RMK A01 T01040065  RH  077%=      5-min Rain = 0
KTH1 051601Z 02004KT 10/07 A3025 RMK A01 T01040065  RH  077%=      5-min Rain = 0
KTH1 051602Z 00006KT 11/07 A3025 RMK A01 T01050066  RH  077%=      5-min Rain = 0
KTH1 051603Z 00007KT 11/07 A3025 RMK A01 T01060065  RH  076%=      5-min Rain = 0
KTH1 051604Z 02007KT 11/07 A3025 RMK A01 T01060065  RH  076%=      5-min Rain = 0
KTH1 051605Z 02005KT 11/07 A3025 RMK A01 T01060066  RH  076%=      5-min Rain = 0
KTH1 051606Z 36006KT 11/07 A3025 RMK A01 T01060066  RH  076%=      5-min Rain = 0
KTH1 051607Z 01007KT 11/07 A3025 RMK A01 T01060066  RH  076%=      5-min Rain = 0
KTH1 051608Z 01008KT 11/07 A3025 RMK A01 T01050066  RH  077%=      5-min Rain = 0
KTH1 051609Z 01007KT 10/07 A3025 RMK A01 T01040066  RH  077%=      5-min Rain = 0
KTH1 051610Z 00008KT 10/07 A3025 RMK A01 T01040066  RH  078%=      5-min Rain = 0
KTH1 051611Z 35008KT 10/07 A3025 RMK A01 T01030066  RH  078%=      5-min Rain = 0
KTH1 051612Z 35005KT 10/07 A3025 RMK A01 T01020066  RH  078%=      5-min Rain = 0
KTH1 051613Z 01005KT 10/07 A3025 RMK A01 T01020067  RH  079%=      5-min Rain = 0
KTH1 051614Z 36007KT 10/07 A3025 RMK A01 T01020067  RH  079%=      5-min Rain = 0
KTH1 051615Z 35007KT 10/07 A3025 RMK A01 T01040067  RH  078%=      5-min Rain = 0
KTH1 051616Z 35007KT 10/07 A3025 RMK A01 T01030067  RH  078%=      5-min Rain = 0
KTH1 051617Z 35007KT 10/07 A3025 RMK A01 T01040067  RH  078%=      5-min Rain = 0
KTH1 051618Z 35007KT 10/07 A3025 RMK A01 T01040067  RH  078%=      5-min Rain = 0
KTH1 051619Z 33006KT 10/07 A3025 RMK A01 T01040067  RH  078%=      5-min Rain = 0
KTH1 051620Z 00006KT 10/07 A3025 RMK A01 T01040068  RH  078%=      5-min Rain = 0
KTH1 051621Z 35007KT 10/07 A3025 RMK A01 T01040067  RH  078%=      5-min Rain = 0
KTH1 051622Z 00008KT 11/07 A3025 RMK A01 T01050068  RH  078%=      5-min Rain = 0
KTH1 051623Z 01006KT 10/07 A3025 RMK A01 T01040067  RH  078%=      5-min Rain = 0
KTH1 051624Z 01005KT 10/07 A3025 RMK A01 T01040068  RH  078%=      5-min Rain = 0
KTH1 051625Z 00004KT 10/07 A3025 RMK A01 T01030068  RH  079%=      5-min Rain = 0
KTH1 051626Z 02005KT 10/07 A3025 RMK A01 T01030068  RH  079%=      5-min Rain = 0
KTH1 051627Z 36007KT 10/07 A3025 RMK A01 T01040067  RH  078%=      5-min Rain = 0
KTH1 051628Z 00007KT 10/07 A3026 RMK A01 T01040067  RH  078%=      5-min Rain = 0
KTH1 051629Z 01007KT 10/07 A3026 RMK A01 T01040066  RH  077%=      5-min Rain = 0
KTH1 051630Z 00008KT 10/07 A3026 RMK A01 T01040066  RH  077%=      5-min Rain = 0
KTH1 051631Z 02007KT 10/07 A3026 RMK A01 T01040067  RH  078%=      5-min Rain = 0
KTH1 051632Z 02009KT 10/07 A3026 RMK A01 T01040067  RH  077%=      5-min Rain = 0
KTH1 051633Z 01008KT 10/07 A3026 RMK A01 T01040066  RH  078%=      5-min Rain = 0
KTH1 051634Z 01006KT 10/07 A3026 RMK A01 T01030067  RH  078%=      5-min Rain = 0
KTH1 051635Z 36005KT 10/07 A3026 RMK A01 T01030067  RH  078%=      5-min Rain = 0
KTH1 051636Z 01005KT 10/07 A3026 RMK A01 T01030067  RH  078%=      5-min Rain = 0
KTH1 051637Z 00006KT 10/07 A3026 RMK A01 T01040067  RH  078%=      5-min Rain = 0
KTH1 051638Z 36006KT 11/07 A3025 RMK A01 T01050066  RH  077%=      5-min Rain = 0
KTH1 051639Z 36007KT 11/07 A3025 RMK A01 T01050066  RH  077%=      5-min Rain = 0
KTH1 051640Z 34007KT 11/07 A3025 RMK A01 T01050067  RH  077%=      5-min Rain = 0
KTH1 051641Z 35006KT 11/07 A3025 RMK A01 T01050066  RH  077%=      5-min Rain = 0
KTH1 051642Z 34005G10KT 11/07 A3025 RMK A01 T01050066  RH  077%=      5-min Rain = 0
KTH1 051643Z 36006KT 11/07 A3025 RMK A01 T01060067  RH  077%=      5-min Rain = 0
KTH1 051644Z 02004KT 11/07 A3025 RMK A01 T01060067  RH  077%=      5-min Rain = 0
KTH1 051645Z 03004KT 11/07 A3025 RMK A01 T01070068  RH  076%=      5-min Rain = 0
KTH1 051646Z 00004KT 11/07 A3025 RMK A01 T01080068  RH  076%=      5-min Rain = 0
KTH1 051647Z 35005KT 11/07 A3025 RMK A01 T01090067  RH  075%=      5-min Rain = 0
KTH1 051648Z 33002KT 11/07 A3025 RMK A01 T01080067  RH  076%=      5-min Rain = 0
KTH1 051649Z 34004KT 11/07 A3025 RMK A01 T01080067  RH  076%=      5-min Rain = 0
KTH1 051650Z 36005KT 11/07 A3025 RMK A01 T01080067  RH  076%=      5-min Rain = 0
KTH1 051651Z 33003KT 11/07 A3025 RMK A01 T01090067  RH  075%=      5-min Rain = 0
KTH1 051652Z 34005KT 11/07 A3025 RMK A01 T01090068  RH  076%=      5-min Rain = 0
KTH1 051653Z 32008KT 11/07 A3025 RMK A01 T01080067  RH  076%=      5-min Rain = 0
KTH1 051654Z 33008KT 11/07 A3025 RMK A01 T01080068  RH  076%=      5-min Rain = 0
KTH1 051655Z 33006KT 11/07 A3025 RMK A01 T01080068  RH  076%=      5-min Rain = 0
KTH1 051656Z 34004KT 11/07 A3025 RMK A01 T01080068  RH  076%=      5-min Rain = 0
KTH1 051657Z 35006KT 11/07 A3025 RMK A01 T01090069  RH  076%=      5-min Rain = 0
KTH1 051658Z 35004KT 11/07 A3025 RMK A01 T01100069  RH  076%=      5-min Rain = 0
KTH1 051659Z 00004KT 11/07 A3025 RMK A01 T01110069  RH  075%=      5-min Rain = 0
KTH1 051700Z 01005KT 11/07 A3025 RMK A01 T01130069  RH  074%=      5-min Rain = 0
KTH1 051701Z 35005KT 11/07 A3025 RMK A01 T01130068  RH  074%=      5-min Rain = 0
KTH1 051702Z 34005KT 11/07 A3025 RMK A01 T01130069  RH  074%=      5-min Rain = 0
KTH1 051703Z 33005KT 11/07 A3025 RMK A01 T01130069  RH  074%=      5-min Rain = 0
KTH1 051704Z 34005KT 11/07 A3025 RMK A01 T01130068  RH  074%=      5-min Rain = 0
KTH1 051705Z 01005KT 11/07 A3025 RMK A01 T01130069  RH  074%=      5-min Rain = 0
KTH1 051706Z 02006KT 11/07 A3025 RMK A01 T01130069  RH  074%=      5-min Rain = 0
KTH1 051707Z 02006KT 11/07 A3025 RMK A01 T01130068  RH  074%=      5-min Rain = 0
KTH1 051708Z 02006KT 11/07 A3025 RMK A01 T01120067  RH  074%=      5-min Rain = 0
KTH1 051709Z 01004KT 11/07 A3025 RMK A01 T01120067  RH  074%=      5-min Rain = 0
KTH1 051710Z 34004KT 11/07 A3025 RMK A01 T01130069  RH  075%=      5-min Rain = 0
KTH1 051711Z 32005KT 11/07 A3025 RMK A01 T01140067  RH  073%=      5-min Rain = 0
KTH1 051712Z 33005KT 11/07 A3025 RMK A01 T01140068  RH  073%=      5-min Rain = 0
KTH1 051713Z 33004KT 12/07 A3025 RMK A01 T01150069  RH  074%=      5-min Rain = 0
KTH1 051714Z 36003KT 12/07 A3025 RMK A01 T01160069  RH  073%=      5-min Rain = 0
KTH1 051715Z 36006KT 12/07 A3025 RMK A01 T01170068  RH  072%=      5-min Rain = 0
KTH1 051716Z 35005KT 12/07 A3025 RMK A01 T01170067  RH  071%=      5-min Rain = 0
KTH1 051717Z 35005KT 12/07 A3025 RMK A01 T01160066  RH  071%=      5-min Rain = 0
KTH1 051718Z 33006KT 11/07 A3025 RMK A01 T01140066  RH  072%=      5-min Rain = 0
KTH1 051719Z 33005KT 11/07 A3025 RMK A01 T01130066  RH  073%=      5-min Rain = 0
KTH1 051720Z 32005KT 11/07 A3025 RMK A01 T01140067  RH  073%=      5-min Rain = 0
KTH1 051721Z 33006KT 11/07 A3025 RMK A01 T01140067  RH  073%=      5-min Rain = 0
KTH1 051722Z 00004KT 11/07 A3025 RMK A01 T01140068  RH  073%=      5-min Rain = 0
KTH1 051723Z 33005KT 12/07 A3025 RMK A01 T01160070  RH  073%=      5-min Rain = 0
KTH1 051724Z 34006KT 12/07 A3025 RMK A01 T01170070  RH  073%=      5-min Rain = 0
KTH1 051725Z 32004KT 12/07 A3025 RMK A01 T01170070  RH  073%=      5-min Rain = 0
KTH1 051726Z 36005KT 12/07 A3025 RMK A01 T01180071  RH  073%=      5-min Rain = 0
KTH1 051727Z 35006KT 12/07 A3025 RMK A01 T01180070  RH  072%=      5-min Rain = 0
KTH1 051728Z 35006KT 12/07 A3025 RMK A01 T01180069  RH  072%=      5-min Rain = 0
KTH1 051729Z 36005KT 12/07 A3025 RMK A01 T01180069  RH  072%=      5-min Rain = 0
KTH1 051730Z 36003KT 12/07 A3025 RMK A01 T01190069  RH  072%=      5-min Rain = 0
KTH1 051731Z 33002KT 12/07 A3025 RMK A01 T01190069  RH  071%=      5-min Rain = 0
KTH1 051732Z 32007KT 12/07 A3025 RMK A01 T01190068  RH  071%=      5-min Rain = 0
KTH1 051733Z 32008KT 12/07 A3025 RMK A01 T01180068  RH  071%=      5-min Rain = 0
KTH1 051734Z 33006KT 12/07 A3025 RMK A01 T01180069  RH  072%=      5-min Rain = 0
KTH1 051735Z 36006KT 12/07 A3025 RMK A01 T01190070  RH  072%=      5-min Rain = 0
KTH1 051736Z 35006KT 12/07 A3025 RMK A01 T01200070  RH  072%=      5-min Rain = 0
KTH1 051737Z 02005KT 12/07 A3024 RMK A01 T01200071  RH  072%=      5-min Rain = 0
KTH1 051738Z 01007KT 12/07 A3024 RMK A01 T01200070  RH  071%=      5-min Rain = 0
KTH1 051739Z 01007KT 12/07 A3024 RMK A01 T01190069  RH  072%=      5-min Rain = 0
KTH1 051740Z 02005KT 12/07 A3024 RMK A01 T01180069  RH  072%=      5-min Rain = 0
KTH1 051741Z 01005KT 12/07 A3024 RMK A01 T01180070  RH  072%=      5-min Rain = 0
KTH1 051742Z 36007KT 12/07 A3024 RMK A01 T01200069  RH  071%=      5-min Rain = 0
KTH1 051743Z 00005KT 12/07 A3024 RMK A01 T01200069  RH  071%=      5-min Rain = 0
KTH1 051744Z 35005KT 12/07 A3024 RMK A01 T01200068  RH  071%=      5-min Rain = 0
KTH1 051745Z 35004KT 12/07 A3024 RMK A01 T01200068  RH  071%=      5-min Rain = 0
KTH1 051746Z 34004KT 12/07 A3024 RMK A01 T01200068  RH  071%=      5-min Rain = 0
KTH1 051747Z 35003KT 12/07 A3024 RMK A01 T01210070  RH  071%=      5-min Rain = 0
KTH1 051748Z 00005KT 12/07 A3024 RMK A01 T01220072  RH  071%=      5-min Rain = 0
KTH1 051749Z 04005KT 12/07 A3024 RMK A01 T01240070  RH  070%=      5-min Rain = 0
KTH1 051750Z 03005KT 12/07 A3024 RMK A01 T01240071  RH  070%=      5-min Rain = 0
KTH1 051751Z 35005KT 12/07 A3024 RMK A01 T01240070  RH  070%=      5-min Rain = 0
KTH1 051752Z 35006KT 12/07 A3024 RMK A01 T01240071  RH  070%=      5-min Rain = 0
KTH1 051753Z 00005KT 13/07 A3024 RMK A01 T01250072  RH  070%=      5-min Rain = 0
KTH1 051754Z 35005KT 13/07 A3024 RMK A01 T01250071  RH  070%=      5-min Rain = 0
KTH1 051755Z 00005KT 13/07 A3024 RMK A01 T01250070  RH  069%=      5-min Rain = 0
KTH1 051756Z 01006KT 12/07 A3024 RMK A01 T01240070  RH  070%=      5-min Rain = 0
KTH1 051757Z 02007KT 12/07 A3024 RMK A01 T01230069  RH  070%=      5-min Rain = 0
KTH1 051758Z 02005KT 12/07 A3024 RMK A01 T01230069  RH  070%=      5-min Rain = 0
KTH1 051759Z 02006KT 12/07 A3024 RMK A01 T01220069  RH  070%=      5-min Rain = 0
KTH1 051800Z 01004KT 12/07 A3023 RMK A01 T01220069  RH  070%=      5-min Rain = 0
KTH1 051801Z 35004KT 12/07 A3023 RMK A01 T01220069  RH  070%=      5-min Rain = 0
KTH1 051802Z 35004KT 12/07 A3023 RMK A01 T01230068  RH  069%=      5-min Rain = 0
KTH1 051803Z 00004KT 12/07 A3023 RMK A01 T01230068  RH  069%=      5-min Rain = 0
KTH1 051804Z 01005KT 12/07 A3023 RMK A01 T01240068  RH  068%=      5-min Rain = 0
KTH1 051805Z 01004KT 13/07 A3023 RMK A01 T01250068  RH  068%=      5-min Rain = 0
KTH1 051806Z 01003KT 13/07 A3023 RMK A01 T01250068  RH  068%=      5-min Rain = 0
KTH1 051807Z 03004KT 13/07 A3023 RMK A01 T01260067  RH  068%=      5-min Rain = 0
KTH1 051808Z 02004KT 13/07 A3023 RMK A01 T01260068  RH  067%=      5-min Rain = 0
KTH1 051809Z 34003KT 13/07 A3023 RMK A01 T01280069  RH  067%=      5-min Rain = 0
KTH1 051810Z 35004KT 13/07 A3023 RMK A01 T01290068  RH  067%=      5-min Rain = 0
KTH1 051811Z 36003KT 13/07 A3023 RMK A01 T01290067  RH  066%=      5-min Rain = 0
KTH1 051812Z 33003KT 13/07 A3023 RMK A01 T01270066  RH  067%=      5-min Rain = 0
KTH1 051813Z 34003KT 13/07 A3023 RMK A01 T01270067  RH  067%=      5-min Rain = 0
KTH1 051814Z 32003KT 13/07 A3023 RMK A01 T01260067  RH  067%=      5-min Rain = 0
KTH1 051815Z 32005KT 13/07 A3023 RMK A01 T01260069  RH  068%=      5-min Rain = 0
KTH1 051816Z 33003KT 13/07 A3023 RMK A01 T01250069  RH  069%=      5-min Rain = 0
KTH1 051817Z 34003KT 13/07 A3023 RMK A01 T01250071  RH  069%=      5-min Rain = 0
KTH1 051818Z 01004KT 13/07 A3023 RMK A01 T01260072  RH  070%=      5-min Rain = 0
KTH1 051819Z 00004KT 13/07 A3022 RMK A01 T01290073  RH  069%=      5-min Rain = 0
KTH1 051820Z 01005KT 13/07 A3022 RMK A01 T01310073  RH  068%=      5-min Rain = 0
KTH1 051821Z 01006KT 13/07 A3022 RMK A01 T01300072  RH  067%=      5-min Rain = 0
KTH1 051822Z 01005KT 13/07 A3022 RMK A01 T01270071  RH  069%=      5-min Rain = 0
KTH1 051823Z 03003KT 13/07 A3022 RMK A01 T01260072  RH  070%=      5-min Rain = 0
KTH1 051824Z 00003KT 13/07 A3022 RMK A01 T01270074  RH  070%=      5-min Rain = 0
KTH1 051825Z 00004KT 13/07 A3022 RMK A01 T01290074  RH  069%=      5-min Rain = 0
KTH1 051826Z 00006KT 13/07 A3022 RMK A01 T01290074  RH  069%=      5-min Rain = 0
KTH1 051827Z 02004KT 13/07 A3022 RMK A01 T01290074  RH  069%=      5-min Rain = 0
KTH1 051828Z 02002KT 13/07 A3022 RMK A01 T01280074  RH  069%=      5-min Rain = 0
KTH1 051829Z 01004KT 13/07 A3022 RMK A01 T01280073  RH  069%=      5-min Rain = 0
KTH1 051830Z 02004KT 13/07 A3022 RMK A01 T01290073  RH  069%=      5-min Rain = 0
KTH1 051831Z 35005KT 13/07 A3022 RMK A01 T01290074  RH  069%=      5-min Rain = 0
KTH1 051832Z 35005KT 13/07 A3022 RMK A01 T01300073  RH  068%=      5-min Rain = 0
KTH1 051833Z 35005KT 13/07 A3021 RMK A01 T01300072  RH  068%=      5-min Rain = 0
KTH1 051834Z 02005KT 13/07 A3021 RMK A01 T01290072  RH  068%=      5-min Rain = 0
KTH1 051835Z 02005KT 13/07 A3021 RMK A01 T01290072  RH  068%=      5-min Rain = 0
KTH1 051836Z 03004KT 13/07 A3021 RMK A01 T01290071  RH  068%=      5-min Rain = 0
KTH1 051837Z 02003KT 13/07 A3021 RMK A01 T01290072  RH  068%=      5-min Rain = 0
KTH1 051838Z 03003KT 13/07 A3021 RMK A01 T01320073  RH  068%=      5-min Rain = 0
KTH1 051839Z 01003KT 13/07 A3021 RMK A01 T01330073  RH  067%=      5-min Rain = 0
KTH1 051840Z 02003KT 13/07 A3021 RMK A01 T01330073  RH  067%=      5-min Rain = 0
KTH1 051841Z 36001KT 13/07 A3021 RMK A01 T01330073  RH  067%=      5-min Rain = 0
KTH1 051842Z 01002KT 13/07 A3021 RMK A01 T01330073  RH  067%=      5-min Rain = 0
KTH1 051843Z 06004KT 13/07 A3021 RMK A01 T01340073  RH  066%=      5-min Rain = 0
KTH1 051844Z 01002KT 13/07 A3021 RMK A01 T01340073  RH  067%=      5-min Rain = 0
KTH1 051845Z 36002KT 13/07 A3021 RMK A01 T01340073  RH  067%=      5-min Rain = 0
KTH1 051846Z 32002KT 13/07 A3021 RMK A01 T01340072  RH  066%=      5-min Rain = 0
KTH1 051847Z 01002KT 13/07 A3021 RMK A01 T01340073  RH  066%=      5-min Rain = 0
KTH1 051848Z 36003KT 14/07 A3021 RMK A01 T01360073  RH  066%=      5-min Rain = 0
KTH1 051849Z 35004KT 14/07 A3021 RMK A01 T01360072  RH  065%=      5-min Rain = 0
KTH1 051850Z 02005KT 14/07 A3021 RMK A01 T01360072  RH  065%=      5-min Rain = 0
KTH1 051851Z 02004KT 14/07 A3021 RMK A01 T01350072  RH  065%=      5-min Rain = 0
KTH1 051852Z 03004KT 14/07 A3021 RMK A01 T01350073  RH  066%=      5-min Rain = 0
KTH1 051853Z 05003KT 14/07 A3021 RMK A01 T01360072  RH  065%=      5-min Rain = 0
KTH1 051854Z 03003KT 14/07 A3021 RMK A01 T01350073  RH  066%=      5-min Rain = 0
KTH1 051855Z 03002KT 14/07 A3021 RMK A01 T01350073  RH  066%=      5-min Rain = 0
KTH1 051856Z 04002KT 14/07 A3021 RMK A01 T01370074  RH  066%=      5-min Rain = 0
KTH1 051857Z 03001KT 14/07 A3021 RMK A01 T01360073  RH  065%=      5-min Rain = 0
KTH1 051858Z 36003KT 14/07 A3021 RMK A01 T01350073  RH  066%=      5-min Rain = 0
KTH1 051859Z 03003KT 14/07 A3021 RMK A01 T01350072  RH  066%=      5-min Rain = 0
KTH1 051900Z 02004KT 13/07 A3021 RMK A01 T01330072  RH  066%=      5-min Rain = 0
KTH1 051901Z 33003KT 13/07 A302 RMK A01 T01320073  RH  067%=      5-min Rain = 0
KTH1 051902Z 35002KT 13/07 A302 RMK A01 T01330073  RH  067%=      5-min Rain = 0
KTH1 051903Z 35003KT 13/07 A302 RMK A01 T01320073  RH  067%=      5-min Rain = 0
KTH1 051904Z 35002KT 13/07 A302 RMK A01 T01320074  RH  068%=      5-min Rain = 0
KTH1 051905Z 33001KT 13/08 A302 RMK A01 T01340075  RH  068%=      5-min Rain = 0
KTH1 051906Z 00001KT 14/08 A302 RMK A01 T01360076  RH  067%=      5-min Rain = 0
KTH1 051907Z 05002KT 14/08 A302 RMK A01 T01380076  RH  066%=      5-min Rain = 0
KTH1 051908Z 07001KT 14/08 A302 RMK A01 T01400075  RH  065%=      5-min Rain = 0
KTH1 051909Z 06002KT 14/08 A302 RMK A01 T01410075  RH  064%=      5-min Rain = 0
KTH1 051910Z 02002KT 14/07 A302 RMK A01 T01420074  RH  064%=      5-min Rain = 0
KTH1 051911Z 33003KT 14/08 A302 RMK A01 T01420075  RH  064%=      5-min Rain = 0
KTH1 051912Z 33003KT 14/08 A302 RMK A01 T01420076  RH  064%=      5-min Rain = 0
KTH1 051913Z 32003KT 14/08 A302 RMK A01 T01410075  RH  064%=      5-min Rain = 0
KTH1 051914Z 31002KT 14/07 A302 RMK A01 T01400074  RH  064%=      5-min Rain = 0
KTH1 051915Z 31003KT 14/07 A302 RMK A01 T01390074  RH  064%=      5-min Rain = 0
KTH1 051916Z 30003KT 14/07 A302 RMK A01 T01380074  RH  065%=      5-min Rain = 0
KTH1 051917Z 31003KT 14/08 A302 RMK A01 T01380075  RH  065%=      5-min Rain = 0
KTH1 051918Z 32002KT 14/08 A302 RMK A01 T01400076  RH  065%=      5-min Rain = 0
KTH1 051919Z 30003KT 14/08 A302 RMK A01 T01420076  RH  064%=      5-min Rain = 0
KTH1 051920Z 32003KT 14/07 A302 RMK A01 T01400074  RH  064%=      5-min Rain = 0
KTH1 051921Z 30003KT 14/07 A302 RMK A01 T01390074  RH  065%=      5-min Rain = 0
KTH1 051922Z 32003KT 14/08 A302 RMK A01 T01380075  RH  065%=      5-min Rain = 0
KTH1 051923Z 31003KT 14/08 A302 RMK A01 T01380075  RH  065%=      5-min Rain = 0
KTH1 051924Z 29004KT 14/08 A302 RMK A01 T01380075  RH  066%=      5-min Rain = 0
KTH1 051925Z 30005KT 14/08 A302 RMK A01 T01390077  RH  066%=      5-min Rain = 0
KTH1 051926Z 29003KT 14/08 A302 RMK A01 T01390076  RH  066%=      5-min Rain = 0
KTH1 051927Z 28002KT 14/08 A302 RMK A01 T01400075  RH  065%=      5-min Rain = 0
KTH1 051928Z 25001KT 14/08 A302 RMK A01 T01400075  RH  065%=      5-min Rain = 0
KTH1 051929Z 20001KT 14/08 A302 RMK A01 T01410075  RH  065%=      5-min Rain = 0
KTH1 051930Z 06003KT 14/08 A302 RMK A01 T01430076  RH  064%=      5-min Rain = 0
KTH1 051931Z 36003KT 14/08 A302 RMK A01 T01440076  RH  063%=      5-min Rain = 0
KTH1 051932Z 35003KT 14/08 A302 RMK A01 T01440076  RH  063%=      5-min Rain = 0
KTH1 051933Z 33002KT 14/08 A302 RMK A01 T01440075  RH  063%=      5-min Rain = 0
KTH1 051934Z 32004KT 14/08 A302 RMK A01 T01440075  RH  063%=      5-min Rain = 0
KTH1 051935Z 32002KT 14/07 A302 RMK A01 T01430074  RH  063%=      5-min Rain = 0
KTH1 051936Z 35002KT 14/07 A302 RMK A01 T01420074  RH  064%=      5-min Rain = 0
KTH1 051937Z 02003KT 14/08 A302 RMK A01 T01420075  RH  064%=      5-min Rain = 0
KTH1 051938Z 04001KT 14/07 A302 RMK A01 T01430074  RH  063%=      5-min Rain = 0
KTH1 051939Z 07001KT 14/07 A302 RMK A01 T01430074  RH  063%=      5-min Rain = 0
KTH1 051940Z 33001KT 14/08 A302 RMK A01 T01440075  RH  063%=      5-min Rain = 0
KTH1 051941Z 32001KT 14/08 A3019 RMK A01 T01440075  RH  063%=      5-min Rain = 0
KTH1 051942Z 02000KT 14/08 A3019 RMK A01 T01440075  RH  063%=      5-min Rain = 0
KTH1 051943Z 00001KT 15/08 A3019 RMK A01 T01450075  RH  063%=      5-min Rain = 0
KTH1 051944Z 35003KT 15/08 A3019 RMK A01 T01460076  RH  063%=      5-min Rain = 0
KTH1 051945Z 35002KT 15/08 A3019 RMK A01 T01450077  RH  064%=      5-min Rain = 0
KTH1 051946Z 01002KT 15/08 A3019 RMK A01 T01450077  RH  064%=      5-min Rain = 0
KTH1 051947Z 01003KT 15/08 A3019 RMK A01 T01450077  RH  064%=      5-min Rain = 0
KTH1 051948Z 03003KT 15/08 A3019 RMK A01 T01450076  RH  063%=      5-min Rain = 0
KTH1 051949Z 35001KT 15/08 A302 RMK A01 T01450076  RH  063%=      5-min Rain = 0
KTH1 051950Z 15000KT 15/08 A302 RMK A01 T01450076  RH  063%=      5-min Rain = 0
KTH1 051951Z 24000KT 14/08 A302 RMK A01 T01440077  RH  064%=      5-min Rain = 0
KTH1 051952Z 01001KT 15/08 A302 RMK A01 T01450076  RH  063%=      5-min Rain = 0
KTH1 051953Z 36000KT 15/08 A302 RMK A01 T01450076  RH  063%=      5-min Rain = 0
KTH1 051954Z 23001KT 15/08 A302 RMK A01 T01450076  RH  063%=      5-min Rain = 0
KTH1 051955Z 25000KT 15/08 A302 RMK A01 T01450075  RH  063%=      5-min Rain = 0
KTH1 051956Z 04000KT 15/08 A302 RMK A01 T01450076  RH  063%=      5-min Rain = 0
KTH1 051957Z 03002KT 15/08 A302 RMK A01 T01450077  RH  063%=      5-min Rain = 0
KTH1 051958Z 04001KT 15/08 A302 RMK A01 T01460077  RH  063%=      5-min Rain = 0
KTH1 051959Z 05002KT 15/08 A302 RMK A01 T01470076  RH  063%=      5-min Rain = 0
KTH1 052000Z 05000KT 15/08 A3019 RMK A01 T01470076  RH  062%=      5-min Rain = 0
KTH1 052001Z 34000KT 15/08 A3019 RMK A01 T01470076  RH  063%=      5-min Rain = 0
KTH1 052002Z 11000KT 15/08 A3019 RMK A01 T01470077  RH  063%=      5-min Rain = 0
KTH1 052003Z 11001KT 15/08 A3019 RMK A01 T01480076  RH  062%=      5-min Rain = 0
KTH1 052004Z 15001KT 15/08 A3019 RMK A01 T01490076  RH  062%=      5-min Rain = 0
KTH1 052005Z 16001KT 15/08 A3019 RMK A01 T01490077  RH  062%=      5-min Rain = 0
KTH1 052006Z 13000KT 15/08 A3019 RMK A01 T01480077  RH  062%=      5-min Rain = 0
KTH1 052007Z 27000KT 15/08 A3019 RMK A01 T01480076  RH  062%=      5-min Rain = 0
KTH1 052008Z 27002KT 15/08 A3019 RMK A01 T01480079  RH  063%=      5-min Rain = 0
KTH1 052009Z 27002KT 15/08 A3019 RMK A01 T01480079  RH  063%=      5-min Rain = 0
KTH1 052010Z 27002KT 15/08 A3019 RMK A01 T01470078  RH  063%=      5-min Rain = 0
KTH1 052011Z 26002KT 15/08 A3019 RMK A01 T01460077  RH  063%=      5-min Rain = 0
KTH1 052012Z 25002KT 15/08 A3019 RMK A01 T01470078  RH  063%=      5-min Rain = 0
KTH1 052013Z 25002KT 15/08 A3019 RMK A01 T01470078  RH  063%=      5-min Rain = 0
KTH1 052014Z 25001KT 15/08 A3019 RMK A01 T01470078  RH  063%=      5-min Rain = 0
KTH1 052015Z 25001KT 15/08 A3019 RMK A01 T01470078  RH  063%=      5-min Rain = 0
KTH1 052016Z 24001KT 15/08 A3019 RMK A01 T01470077  RH  063%=      5-min Rain = 0
KTH1 052017Z 25002KT 15/08 A3019 RMK A01 T01470077  RH  063%=      5-min Rain = 0
KTH1 052018Z 25002KT 15/08 A3019 RMK A01 T01460077  RH  063%=      5-min Rain = 0
KTH1 052019Z 26001KT 15/08 A3019 RMK A01 T01460077  RH  063%=      5-min Rain = 0
KTH1 052020Z 25002KT 15/08 A3019 RMK A01 T01470078  RH  063%=      5-min Rain = 0
KTH1 052021Z 26001KT 15/08 A3019 RMK A01 T01480077  RH  062%=      5-min Rain = 0
KTH1 052022Z 26002KT 15/08 A3019 RMK A01 T01480078  RH  063%=      5-min Rain = 0
KTH1 052023Z 25002KT 15/08 A3019 RMK A01 T01490078  RH  063%=      5-min Rain = 0
KTH1 052024Z 25002KT 15/08 A3019 RMK A01 T01480077  RH  063%=      5-min Rain = 0
KTH1 052025Z 25002KT 15/08 A3019 RMK A01 T01480078  RH  063%=      5-min Rain = 0
KTH1 052026Z 25002KT 15/08 A3019 RMK A01 T01470078  RH  063%=      5-min Rain = 0
KTH1 052027Z 26001KT 15/08 A3019 RMK A01 T01470078  RH  063%=      5-min Rain = 0
KTH1 052028Z 25001KT 15/08 A3019 RMK A01 T01460078  RH  064%=      5-min Rain = 0
KTH1 052029Z 26001KT 15/08 A3019 RMK A01 T01460078  RH  064%=      5-min Rain = 0
KTH1 052030Z 26001KT 15/08 A3019 RMK A01 T01460078  RH  064%=      5-min Rain = 0
KTH1 052031Z 27002KT 15/08 A3019 RMK A01 T01460079  RH  064%=      5-min Rain = 0
KTH1 052032Z 29001KT 15/08 A3019 RMK A01 T01470080  RH  064%=      5-min Rain = 0
KTH1 052033Z 27002KT 15/08 A3019 RMK A01 T01480079  RH  064%=      5-min Rain = 0
KTH1 052034Z 26001KT 15/08 A3019 RMK A01 T01490079  RH  063%=      5-min Rain = 0
KTH1 052035Z 25001KT 15/08 A3019 RMK A01 T01490079  RH  063%=      5-min Rain = 0
KTH1 052036Z 26001KT 15/08 A3019 RMK A01 T01490079  RH  063%=      5-min Rain = 0
KTH1 052037Z 25001KT 15/08 A3019 RMK A01 T01490079  RH  063%=      5-min Rain = 0
KTH1 052038Z 26001KT 15/08 A3019 RMK A01 T01500079  RH  062%=      5-min Rain = 0
KTH1 052039Z 26001KT 15/08 A3019 RMK A01 T01500079  RH  062%=      5-min Rain = 0
KTH1 052040Z 25001KT 15/08 A3019 RMK A01 T01500079  RH  063%=      5-min Rain = 0
KTH1 052041Z 27000KT 15/08 A3019 RMK A01 T01500079  RH  062%=      5-min Rain = 0
KTH1 052042Z 28001KT 15/08 A3019 RMK A01 T01500079  RH  062%=      5-min Rain = 0
KTH1 052043Z 24001KT 15/08 A3019 RMK A01 T01510080  RH  062%=      5-min Rain = 0
KTH1 052044Z 25001KT 15/08 A3019 RMK A01 T01520080  RH  062%=      5-min Rain = 0
KTH1 052045Z 27001KT 15/08 A3019 RMK A01 T01520079  RH  062%=      5-min Rain = 0
KTH1 052046Z 27002KT 15/08 A3019 RMK A01 T01520079  RH  062%=      5-min Rain = 0
KTH1 052047Z 26002KT 15/08 A3019 RMK A01 T01520082  RH  063%=      5-min Rain = 0
KTH1 052048Z 26002KT 15/08 A3019 RMK A01 T01510081  RH  063%=      5-min Rain = 0
KTH1 052049Z 28001KT 15/08 A3019 RMK A01 T01500080  RH  063%=      5-min Rain = 0
KTH1 052050Z 27001KT 15/08 A3019 RMK A01 T01500081  RH  063%=      5-min Rain = 0
KTH1 052051Z 25002KT 15/08 A3019 RMK A01 T01500080  RH  063%=      5-min Rain = 0
KTH1 052052Z 26002KT 15/08 A3019 RMK A01 T01510081  RH  063%=      5-min Rain = 0
KTH1 052053Z 28002KT 15/08 A3019 RMK A01 T01520082  RH  063%=      5-min Rain = 0
KTH1 052054Z 33002KT 15/08 A3019 RMK A01 T01520083  RH  063%=      5-min Rain = 0
KTH1 052055Z 33003KT 15/08 A3019 RMK A01 T01520083  RH  063%=      5-min Rain = 0
KTH1 052056Z 35003KT 15/08 A3019 RMK A01 T01520083  RH  063%=      5-min Rain = 0
KTH1 052057Z 34002KT 15/08 A3019 RMK A01 T01530082  RH  063%=      5-min Rain = 0
KTH1 052058Z 32002KT 15/08 A3019 RMK A01 T01530083  RH  063%=      5-min Rain = 0
KTH1 052059Z 33002KT 15/08 A3019 RMK A01 T01530084  RH  063%=      5-min Rain = 0
KTH1 052100Z 36002KT 15/08 A3019 RMK A01 T01540083  RH  063%=      5-min Rain = 0
KTH1 052101Z 35002KT 15/08 A3019 RMK A01 T01540083  RH  062%=      5-min Rain = 0
KTH1 052102Z 33002KT 15/08 A3019 RMK A01 T01530082  RH  063%=      5-min Rain = 0
KTH1 052103Z 35001KT 15/08 A3019 RMK A01 T01520082  RH  063%=      5-min Rain = 0
KTH1 052104Z 35001KT 15/08 A3019 RMK A01 T01530083  RH  063%=      5-min Rain = 0
KTH1 052105Z 30002KT 15/08 A3019 RMK A01 T01530083  RH  063%=      5-min Rain = 0
KTH1 052106Z 31002KT 15/08 A3019 RMK A01 T01530083  RH  063%=      5-min Rain = 0
KTH1 052107Z 31001KT 15/08 A3019 RMK A01 T01530084  RH  063%=      5-min Rain = 0
KTH1 052108Z 34001KT 15/08 A3019 RMK A01 T01530083  RH  063%=      5-min Rain = 0
KTH1 052109Z 36002KT 15/08 A3019 RMK A01 T01530082  RH  063%=      5-min Rain = 0
KTH1 052110Z 34001KT 15/08 A3019 RMK A01 T01530082  RH  062%=      5-min Rain = 0
KTH1 052111Z 30001KT 15/08 A3019 RMK A01 T01530082  RH  063%=      5-min Rain = 0
KTH1 052112Z 32003KT 15/08 A3019 RMK A01 T01530083  RH  063%=      5-min Rain = 0
KTH1 052113Z 34003KT 15/08 A3019 RMK A01 T01530083  RH  063%=      5-min Rain = 0
KTH1 052114Z 33002KT 15/09 A3019 RMK A01 T01530085  RH  064%=      5-min Rain = 0
KTH1 052115Z 34003KT 15/09 A3019 RMK A01 T01530086  RH  064%=      5-min Rain = 0
KTH1 052116Z 34003KT 15/09 A3019 RMK A01 T01530085  RH  064%=      5-min Rain = 0
KTH1 052117Z 34002KT 15/09 A3019 RMK A01 T01530086  RH  064%=      5-min Rain = 0
KTH1 052118Z 33002KT 15/09 A3019 RMK A01 T01530087  RH  064%=      5-min Rain = 0
KTH1 052119Z 32002KT 15/09 A3019 RMK A01 T01540087  RH  064%=      5-min Rain = 0
KTH1 052120Z 29002KT 15/09 A3019 RMK A01 T01540087  RH  064%=      5-min Rain = 0
KTH1 052121Z 28002KT 15/09 A3019 RMK A01 T01540088  RH  065%=      5-min Rain = 0
KTH1 052122Z 28002KT 15/09 A3019 RMK A01 T01540087  RH  065%=      5-min Rain = 0
KTH1 052123Z 34001KT 15/09 A3019 RMK A01 T01540087  RH  064%=      5-min Rain = 0
KTH1 052124Z 35002KT 15/09 A3019 RMK A01 T01540086  RH  064%=      5-min Rain = 0
KTH1 052125Z 34001KT 16/09 A3019 RMK A01 T01550087  RH  064%=      5-min Rain = 0
KTH1 052126Z 00000KT 16/09 A3019 RMK A01 T01560087  RH  063%=      5-min Rain = 0
KTH1 052127Z 36001KT 16/09 A3019 RMK A01 T01570087  RH  063%=      5-min Rain = 0
KTH1 052128Z 35002KT 16/09 A3019 RMK A01 T01580086  RH  062%=      5-min Rain = 0
KTH1 052129Z 32001KT 16/09 A3019 RMK A01 T01580085  RH  061%=      5-min Rain = 0
KTH1 052130Z 06001KT 16/08 A3019 RMK A01 T01570084  RH  062%=      5-min Rain = 0
KTH1 052131Z 05003KT 16/08 A3019 RMK A01 T01570084  RH  062%=      5-min Rain = 0
KTH1 052132Z 06002KT 16/08 A3019 RMK A01 T01570084  RH  062%=      5-min Rain = 0
KTH1 052133Z 05003KT 16/08 A3019 RMK A01 T01560084  RH  062%=      5-min Rain = 0
KTH1 052134Z 06003KT 16/09 A3019 RMK A01 T01560085  RH  062%=      5-min Rain = 0
KTH1 052135Z 06003KT 16/09 A3019 RMK A01 T01570085  RH  062%=      5-min Rain = 0
KTH1 052136Z 08003KT 16/09 A3019 RMK A01 T01570085  RH  062%=      5-min Rain = 0
KTH1 052137Z 09003KT 16/09 A3019 RMK A01 T01570086  RH  063%=      5-min Rain = 0
KTH1 052138Z 08002KT 16/09 A3019 RMK A01 T01570086  RH  063%=      5-min Rain = 0
KTH1 052139Z 07002KT 16/09 A3019 RMK A01 T01570086  RH  063%=      5-min Rain = 0
KTH1 052140Z 06001KT 16/09 A3019 RMK A01 T01570086  RH  063%=      5-min Rain = 0
KTH1 052141Z 06000KT 16/09 A3019 RMK A01 T01570086  RH  063%=      5-min Rain = 0
KTH1 052142Z 06001KT 16/09 A3019 RMK A01 T01570086  RH  063%=      5-min Rain = 0
KTH1 052143Z 08001KT 16/09 A3019 RMK A01 T01570086  RH  063%=      5-min Rain = 0
KTH1 052144Z 05001KT 16/09 A3019 RMK A01 T01580086  RH  062%=      5-min Rain = 0
KTH1 052145Z 06001KT 16/09 A3018 RMK A01 T01580087  RH  063%=      5-min Rain = 0
KTH1 052146Z 05003KT 16/09 A3018 RMK A01 T01580087  RH  063%=      5-min Rain = 0
KTH1 052147Z 06002KT 16/09 A3018 RMK A01 T01580086  RH  062%=      5-min Rain = 0
KTH1 052148Z 07002KT 16/09 A3018 RMK A01 T01580086  RH  062%=      5-min Rain = 0
KTH1 052149Z 06002KT 16/09 A3018 RMK A01 T01570086  RH  063%=      5-min Rain = 0
KTH1 052150Z 06001KT 16/09 A3018 RMK A01 T01570086  RH  062%=      5-min Rain = 0
KTH1 052151Z 10001KT 16/09 A3018 RMK A01 T01570086  RH  063%=      5-min Rain = 0
KTH1 052152Z 06001KT 16/09 A3018 RMK A01 T01570085  RH  062%=      5-min Rain = 0
KTH1 052153Z 06003KT 16/09 A3018 RMK A01 T01570085  RH  062%=      5-min Rain = 0
KTH1 052154Z 05004KT 16/09 A3018 RMK A01 T01570086  RH  063%=      5-min Rain = 0
KTH1 052155Z 04002KT 16/09 A3018 RMK A01 T01580086  RH  062%=      5-min Rain = 0
KTH1 052156Z 05001KT 16/09 A3018 RMK A01 T01570086  RH  062%=      5-min Rain = 0
KTH1 052157Z 07002KT 16/09 A3018 RMK A01 T01570086  RH  063%=      5-min Rain = 0
KTH1 052158Z 07002KT 16/09 A3018 RMK A01 T01580086  RH  062%=      5-min Rain = 0
KTH1 052159Z 07002KT 16/09 A3018 RMK A01 T01580087  RH  062%=      5-min Rain = 0
KTH1 052200Z 07002KT 16/09 A3018 RMK A01 T01590087  RH  062%=      5-min Rain = 0
KTH1 052201Z 05003KT 16/09 A3018 RMK A01 T01590086  RH  062%=      5-min Rain = 0
KTH1 052202Z 03002KT 16/09 A3018 RMK A01 T01590087  RH  062%=      5-min Rain = 0
KTH1 052203Z 06000KT 16/09 A3018 RMK A01 T01600086  RH  062%=      5-min Rain = 0
KTH1 052204Z 03002KT 16/09 A3018 RMK A01 T01590086  RH  062%=      5-min Rain = 0
KTH1 052205Z 01002KT 16/09 A3018 RMK A01 T01610087  RH  061%=      5-min Rain = 0
KTH1 052206Z 01001KT 16/09 A3018 RMK A01 T01610086  RH  061%=      5-min Rain = 0
KTH1 052207Z 35001KT 16/09 A3018 RMK A01 T01610086  RH  061%=      5-min Rain = 0
KTH1 052208Z 35002KT 16/09 A3018 RMK A01 T01620086  RH  061%=      5-min Rain = 0
KTH1 052209Z 32002KT 16/09 A3018 RMK A01 T01620086  RH  061%=      5-min Rain = 0
KTH1 052210Z 34001KT 16/09 A3018 RMK A01 T01620086  RH  061%=      5-min Rain = 0
KTH1 052211Z 03002KT 16/09 A3018 RMK A01 T01610086  RH  061%=      5-min Rain = 0
KTH1 052212Z 04001KT 16/09 A3018 RMK A01 T01610087  RH  061%=      5-min Rain = 0
KTH1 052213Z 03001KT 16/09 A3018 RMK A01 T01620087  RH  061%=      5-min Rain = 0
KTH1 052214Z 02002KT 16/09 A3018 RMK A01 T01620087  RH  061%=      5-min Rain = 0
KTH1 052215Z 02002KT 16/09 A3018 RMK A01 T01620087  RH  061%=      5-min Rain = 0
KTH1 052216Z 06002KT 16/09 A3018 RMK A01 T01620087  RH  061%=      5-min Rain = 0
KTH1 052217Z 07002KT 16/09 A3018 RMK A01 T01610086  RH  061%=      5-min Rain = 0
KTH1 052218Z 07002KT 16/09 A3018 RMK A01 T01620086  RH  061%=      5-min Rain = 0
KTH1 052219Z 04003KT 16/09 A3018 RMK A01 T01620086  RH  061%=      5-min Rain = 0
KTH1 052220Z 08003KT 16/09 A3018 RMK A01 T01620086  RH  061%=      5-min Rain = 0
KTH1 052221Z 07003KT 16/09 A3018 RMK A01 T01620086  RH  061%=      5-min Rain = 0
KTH1 052222Z 06003KT 16/09 A3018 RMK A01 T01620086  RH  061%=      5-min Rain = 0
KTH1 052223Z 05003KT 16/09 A3018 RMK A01 T01620087  RH  061%=      5-min Rain = 0
KTH1 052224Z 04001KT 16/09 A3018 RMK A01 T01610086  RH  061%=      5-min Rain = 0
KTH1 052225Z 03001KT 16/09 A3018 RMK A01 T01610086  RH  061%=      5-min Rain = 0
KTH1 052226Z 05002KT 16/09 A3018 RMK A01 T01600086  RH  061%=      5-min Rain = 0
KTH1 052227Z 06002KT 16/09 A3018 RMK A01 T01600087  RH  062%=      5-min Rain = 0
KTH1 052228Z 05002KT 16/09 A3018 RMK A01 T01590087  RH  062%=      5-min Rain = 0
KTH1 052229Z 05002KT 16/09 A3018 RMK A01 T01590087  RH  062%=      5-min Rain = 0
KTH1 052230Z 05001KT 16/09 A3018 RMK A01 T01600087  RH  062%=      5-min Rain = 0
KTH1 052231Z 06002KT 16/09 A3018 RMK A01 T01590088  RH  062%=      5-min Rain = 0
KTH1 052232Z 07001KT 16/09 A3018 RMK A01 T01600088  RH  062%=      5-min Rain = 0
KTH1 052233Z 06001KT 16/09 A3018 RMK A01 T01600087  RH  062%=      5-min Rain = 0
KTH1 052234Z 09001KT 16/09 A3018 RMK A01 T01600087  RH  062%=      5-min Rain = 0
KTH1 052235Z 12000KT 16/09 A3018 RMK A01 T01600087  RH  062%=      5-min Rain = 0
KTH1 052236Z 12000KT 16/09 A3018 RMK A01 T01600087  RH  062%=      5-min Rain = 0
KTH1 052237Z 00000KT 16/09 A3018 RMK A01 T01590087  RH  062%=      5-min Rain = 0
KTH1 052238Z 05000KT 16/09 A3018 RMK A01 T01590087  RH  062%=      5-min Rain = 0
KTH1 052239Z 05002KT 16/09 A3018 RMK A01 T01590087  RH  062%=      5-min Rain = 0
KTH1 052240Z 06001KT 16/09 A3018 RMK A01 T01600087  RH  062%=      5-min Rain = 0
KTH1 052241Z 06001KT 16/09 A3018 RMK A01 T01590086  RH  062%=      5-min Rain = 0
KTH1 052242Z 06000KT 16/09 A3018 RMK A01 T01590087  RH  062%=      5-min Rain = 0
KTH1 052243Z 04002KT 16/09 A3018 RMK A01 T01590087  RH  062%=      5-min Rain = 0
KTH1 052244Z 05003KT 16/09 A3018 RMK A01 T01580087  RH  062%=      5-min Rain = 0
KTH1 052245Z 04002KT 16/09 A3018 RMK A01 T01580087  RH  063%=      5-min Rain = 0
KTH1 052246Z 04002KT 16/09 A3018 RMK A01 T01580087  RH  063%=      5-min Rain = 0
KTH1 052247Z 06003KT 16/09 A3018 RMK A01 T01580087  RH  063%=      5-min Rain = 0
KTH1 052248Z 06002KT 16/09 A3018 RMK A01 T01580087  RH  063%=      5-min Rain = 0
KTH1 052249Z 07002KT 16/09 A3018 RMK A01 T01580088  RH  063%=      5-min Rain = 0
KTH1 052250Z 08002KT 16/09 A3018 RMK A01 T01580088  RH  063%=      5-min Rain = 0
KTH1 052251Z 08002KT 16/09 A3018 RMK A01 T01590088  RH  063%=      5-min Rain = 0
KTH1 052252Z 07001KT 16/09 A3018 RMK A01 T01590088  RH  063%=      5-min Rain = 0
KTH1 052253Z 06002KT 16/09 A3018 RMK A01 T01590088  RH  063%=      5-min Rain = 0
KTH1 052254Z 06002KT 16/09 A3018 RMK A01 T01590088  RH  063%=      5-min Rain = 0
KTH1 052255Z 05002KT 16/09 A3018 RMK A01 T01590087  RH  062%=      5-min Rain = 0
KTH1 052256Z 06002KT 16/09 A3018 RMK A01 T01590087  RH  062%=      5-min Rain = 0
KTH1 052257Z 06003KT 16/09 A3018 RMK A01 T01590087  RH  063%=      5-min Rain = 0
KTH1 052258Z 06003KT 16/09 A3018 RMK A01 T01580087  RH  063%=      5-min Rain = 0
KTH1 052259Z 05002KT 16/09 A3018 RMK A01 T01580087  RH  063%=      5-min Rain = 0
KTH1 052300Z 05001KT 16/09 A3018 RMK A01 T01580086  RH  062%=      5-min Rain = 0
KTH1 052301Z 06003KT 16/09 A3018 RMK A01 T01580087  RH  063%=      5-min Rain = 0
KTH1 052302Z 08003KT 16/09 A3018 RMK A01 T01580087  RH  063%=      5-min Rain = 0
KTH1 052303Z 09003KT 16/09 A3018 RMK A01 T01570087  RH  063%=      5-min Rain = 0
KTH1 052304Z 07003KT 16/09 A3018 RMK A01 T01570087  RH  063%=      5-min Rain = 0
KTH1 052305Z 06002KT 16/09 A3018 RMK A01 T01570086  RH  063%=      5-min Rain = 0
KTH1 052306Z 06002KT 16/09 A3018 RMK A01 T01560086  RH  063%=      5-min Rain = 0
KTH1 052307Z 06002KT 16/09 A3018 RMK A01 T01560086  RH  063%=      5-min Rain = 0
KTH1 052308Z 06002KT 16/09 A3018 RMK A01 T01560087  RH  063%=      5-min Rain = 0
KTH1 052309Z 07002KT 16/09 A3018 RMK A01 T01560087  RH  063%=      5-min Rain = 0
KTH1 052310Z 07002KT 16/09 A3018 RMK A01 T01560087  RH  063%=      5-min Rain = 0
KTH1 052311Z 09002KT 16/09 A3018 RMK A01 T01560087  RH  063%=      5-min Rain = 0
KTH1 052312Z 09003KT 16/09 A3018 RMK A01 T01560087  RH  064%=      5-min Rain = 0
KTH1 052313Z 09002KT 16/09 A3018 RMK A01 T01560087  RH  064%=      5-min Rain = 0
KTH1 052314Z 10002KT 16/09 A3018 RMK A01 T01560087  RH  064%=      5-min Rain = 0
KTH1 052315Z 10002KT 16/09 A3018 RMK A01 T01550087  RH  064%=      5-min Rain = 0
KTH1 052316Z 08002KT 16/09 A3018 RMK A01 T01550087  RH  064%=      5-min Rain = 0
KTH1 052317Z 10002KT 16/09 A3018 RMK A01 T01550087  RH  064%=      5-min Rain = 0
KTH1 052318Z 09002KT 16/09 A3018 RMK A01 T01550087  RH  064%=      5-min Rain = 0
KTH1 052319Z 10002KT 16/09 A3018 RMK A01 T01550087  RH  064%=      5-min Rain = 0
KTH1 052320Z 10003KT 16/09 A3018 RMK A01 T01550087  RH  064%=      5-min Rain = 0
KTH1 052321Z 09002KT 16/09 A3018 RMK A01 T01550088  RH  064%=      5-min Rain = 0
KTH1 052322Z 09002KT 16/09 A3018 RMK A01 T01550088  RH  064%=      5-min Rain = 0
KTH1 052323Z 09003KT 16/09 A3018 RMK A01 T01550088  RH  064%=      5-min Rain = 0
KTH1 052324Z 09003KT 16/09 A3018 RMK A01 T01550088  RH  064%=      5-min Rain = 0
KTH1 052325Z 09003KT 15/09 A3018 RMK A01 T01540088  RH  064%=      5-min Rain = 0
KTH1 052326Z 09003KT 15/09 A3018 RMK A01 T01540088  RH  064%=      5-min Rain = 0
KTH1 052327Z 10003KT 15/09 A3018 RMK A01 T01540088  RH  065%=      5-min Rain = 0
KTH1 052328Z 09003KT 15/09 A3018 RMK A01 T01540088  RH  065%=      5-min Rain = 0
KTH1 052329Z 09002KT 15/09 A3018 RMK A01 T01540088  RH  065%=      5-min Rain = 0
KTH1 052330Z 09003KT 15/09 A3018 RMK A01 T01540088  RH  065%=      5-min Rain = 0
KTH1 052331Z 09002KT 15/09 A3018 RMK A01 T01530088  RH  065%=      5-min Rain = 0
KTH1 052332Z 08002KT 15/09 A3018 RMK A01 T01540088  RH  065%=      5-min Rain = 0
KTH1 052333Z 08002KT 15/09 A3018 RMK A01 T01530088  RH  065%=      5-min Rain = 0
KTH1 052334Z 09002KT 15/09 A3018 RMK A01 T01530088  RH  065%=      5-min Rain = 0
KTH1 052335Z 08002KT 15/09 A3018 RMK A01 T01520088  RH  065%=      5-min Rain = 0
KTH1 052336Z 07002KT 15/09 A3018 RMK A01 T01520088  RH  065%=      5-min Rain = 0
KTH1 052337Z 06002KT 15/09 A3018 RMK A01 T01520088  RH  065%=      5-min Rain = 0
KTH1 052338Z 06002KT 15/09 A3018 RMK A01 T01520088  RH  066%=      5-min Rain = 0
KTH1 052339Z 07002KT 15/09 A3018 RMK A01 T01510088  RH  066%=      5-min Rain = 0
KTH1 052340Z 06003KT 15/09 A3018 RMK A01 T01510088  RH  066%=      5-min Rain = 0
KTH1 052341Z 06002KT 15/09 A3018 RMK A01 T01510088  RH  066%=      5-min Rain = 0
KTH1 052342Z 07003KT 15/09 A3018 RMK A01 T01500088  RH  066%=      5-min Rain = 0
KTH1 052343Z 07003KT 15/09 A3018 RMK A01 T01500087  RH  066%=      5-min Rain = 0
KTH1 052344Z 08002KT 15/09 A3018 RMK A01 T01490087  RH  066%=      5-min Rain = 0
KTH1 052345Z 08002KT 15/09 A3018 RMK A01 T01490087  RH  066%=      5-min Rain = 0
KTH1 052346Z 08002KT 15/09 A3018 RMK A01 T01490087  RH  067%=      5-min Rain = 0
KTH1 052347Z 07002KT 15/09 A3018 RMK A01 T01490087  RH  067%=      5-min Rain = 0
KTH1 052348Z 07002KT 15/09 A3018 RMK A01 T01480087  RH  067%=      5-min Rain = 0
KTH1 052349Z 06002KT 15/09 A3018 RMK A01 T01480087  RH  067%=      5-min Rain = 0
KTH1 052350Z 06002KT 15/09 A3018 RMK A01 T01480087  RH  067%=      5-min Rain = 0
KTH1 052351Z 06002KT 15/09 A3018 RMK A01 T01470087  RH  067%=      5-min Rain = 0
KTH1 052352Z 06003KT 15/09 A3018 RMK A01 T01470087  RH  067%=      5-min Rain = 0
KTH1 052353Z 07002KT 15/09 A3018 RMK A01 T01470087  RH  067%=      5-min Rain = 0
KTH1 052354Z 07002KT 15/09 A3018 RMK A01 T01470088  RH  068%=      5-min Rain = 0
KTH1 052355Z 07002KT 15/09 A3018 RMK A01 T01460087  RH  068%=      5-min Rain = 0
KTH1 052356Z 07001KT 15/09 A3018 RMK A01 T01460087  RH  068%=      5-min Rain = 0
KTH1 052357Z 08001KT 15/09 A3018 RMK A01 T01460087  RH  068%=      5-min Rain = 0
KTH1 052358Z 07001KT 15/09 A3018 RMK A01 T01450087  RH  068%=      5-min Rain = 0
KTH1 052359Z 07001KT 15/09 A3018 RMK A01 T01450087  RH  068%=      5-min Rain = 0
KTH1 060000Z 08002KT 15/09 A3018 RMK A01 T01450087  RH  068%=      5-min Rain = 0
KTH1 060001Z 08002KT 15/09 A3018 RMK A01 T01450087  RH  068%=      5-min Rain = 0
KTH1 060002Z 08001KT 14/09 A3018 RMK A01 T01440087  RH  068%=      5-min Rain = 0
KTH1 060003Z 08002KT 14/09 A3018 RMK A01 T01440086  RH  068%=      5-min Rain = 0
KTH1 060004Z 08002KT 14/09 A3018 RMK A01 T01430087  RH  069%=      5-min Rain = 0
KTH1 060005Z 09002KT 14/09 A3018 RMK A01 T01430087  RH  069%=      5-min Rain = 0
KTH1 060006Z 09002KT 14/09 A3018 RMK A01 T01430087  RH  069%=      5-min Rain = 0
KTH1 060007Z 09002KT 14/09 A3018 RMK A01 T01420087  RH  069%=      5-min Rain = 0
KTH1 060008Z 09002KT 14/09 A3018 RMK A01 T01420087  RH  069%=      5-min Rain = 0
KTH1 060009Z 10002KT 14/09 A3018 RMK A01 T01420087  RH  069%=      5-min Rain = 0
KTH1 060010Z 10002KT 14/09 A3018 RMK A01 T01420087  RH  069%=      5-min Rain = 0
KTH1 060011Z 10002KT 14/09 A3018 RMK A01 T01420087  RH  069%=      5-min Rain = 0
KTH1 060012Z 10002KT 14/09 A3018 RMK A01 T01420087  RH  069%=      5-min Rain = 0
KTH1 060013Z 10002KT 14/09 A3018 RMK A01 T01420087  RH  069%=      5-min Rain = 0
KTH1 060014Z 09002KT 14/09 A3018 RMK A01 T01420087  RH  069%=      5-min Rain = 0
KTH1 060015Z 10002KT 14/09 A3018 RMK A01 T01420087  RH  070%=      5-min Rain = 0
KTH1 060016Z 10002KT 14/09 A3018 RMK A01 T01420087  RH  070%=      5-min Rain = 0
KTH1 060017Z 09002KT 14/09 A3018 RMK A01 T01420087  RH  070%=      5-min Rain = 0
KTH1 060018Z 09002KT 14/09 A3018 RMK A01 T01410087  RH  070%=      5-min Rain = 0
KTH1 060019Z 09003KT 14/09 A3018 RMK A01 T01410087  RH  070%=      5-min Rain = 0
KTH1 060020Z 09002KT 14/09 A3018 RMK A01 T01410087  RH  070%=      5-min Rain = 0
KTH1 060021Z 09002KT 14/09 A3018 RMK A01 T01410087  RH  070%=      5-min Rain = 0
KTH1 060022Z 09002KT 14/09 A3018 RMK A01 T01410087  RH  070%=      5-min Rain = 0
KTH1 060023Z 09002KT 14/09 A3018 RMK A01 T01410087  RH  070%=      5-min Rain = 0
KTH1 060024Z 09003KT 14/09 A3018 RMK A01 T01400087  RH  070%=      5-min Rain = 0
KTH1 060025Z 09002KT 14/09 A3018 RMK A01 T01400087  RH  070%=      5-min Rain = 0
KTH1 060026Z 09002KT 14/09 A3018 RMK A01 T01400087  RH  070%=      5-min Rain = 0
KTH1 060027Z 09002KT 14/09 A3018 RMK A01 T01400087  RH  070%=      5-min Rain = 0
KTH1 060028Z 09002KT 14/09 A3018 RMK A01 T01390086  RH  070%=      5-min Rain = 0
KTH1 060029Z 10003KT 14/09 A3018 RMK A01 T01390086  RH  071%=      5-min Rain = 0
KTH1 060030Z 10002KT 14/09 A3018 RMK A01 T01390086  RH  071%=      5-min Rain = 0
KTH1 060031Z 10002KT 14/09 A3018 RMK A01 T01380086  RH  071%=      5-min Rain = 0
KTH1 060032Z 10002KT 14/09 A3018 RMK A01 T01370086  RH  071%=      5-min Rain = 0
KTH1 060033Z 09002KT 14/09 A3018 RMK A01 T01370086  RH  071%=      5-min Rain = 0
KTH1 060034Z 09002KT 14/09 A3018 RMK A01 T01370086  RH  071%=      5-min Rain = 0
KTH1 060035Z 09002KT 14/09 A3018 RMK A01 T01360085  RH  071%=      5-min Rain = 0
KTH1 060036Z 09002KT 14/09 A3018 RMK A01 T01360086  RH  072%=      5-min Rain = 0
KTH1 060037Z 09003KT 14/09 A3018 RMK A01 T01350086  RH  072%=      5-min Rain = 0
KTH1 060038Z 09002KT 14/09 A3018 RMK A01 T01350086  RH  072%=      5-min Rain = 0
KTH1 060039Z 10002KT 13/09 A3018 RMK A01 T01340086  RH  072%=      5-min Rain = 0
KTH1 060040Z 10003KT 13/09 A3018 RMK A01 T01340085  RH  072%=      5-min Rain = 0
KTH1 060041Z 10002KT 13/09 A3018 RMK A01 T01330085  RH  073%=      5-min Rain = 0
KTH1 060042Z 10002KT 13/09 A3018 RMK A01 T01330085  RH  073%=      5-min Rain = 0
KTH1 060043Z 09003KT 13/09 A3018 RMK A01 T01330086  RH  073%=      5-min Rain = 0
KTH1 060044Z 10003KT 13/09 A3018 RMK A01 T01320085  RH  073%=      5-min Rain = 0
KTH1 060045Z 09003KT 13/09 A3018 RMK A01 T01320085  RH  073%=      5-min Rain = 0
KTH1 060046Z 09003KT 13/09 A3018 RMK A01 T01320085  RH  073%=      5-min Rain = 0
KTH1 060047Z 09003KT 13/08 A3018 RMK A01 T01310084  RH  073%=      5-min Rain = 0
KTH1 060048Z 09002KT 13/09 A3018 RMK A01 T01310085  RH  073%=      5-min Rain = 0
KTH1 060049Z 09002KT 13/09 A3019 RMK A01 T01310085  RH  074%=      5-min Rain = 0
KTH1 060050Z 10002KT 13/09 A3019 RMK A01 T01300085  RH  074%=      5-min Rain = 0
KTH1 060051Z 09002KT 13/09 A3019 RMK A01 T01300085  RH  074%=      5-min Rain = 0
KTH1 060052Z 09002KT 13/09 A3019 RMK A01 T01300085  RH  074%=      5-min Rain = 0
KTH1 060053Z 09002KT 13/09 A3019 RMK A01 T01300085  RH  074%=      5-min Rain = 0
KTH1 060054Z 09002KT 13/09 A3019 RMK A01 T01300085  RH  074%=      5-min Rain = 0
KTH1 060055Z 09002KT 13/09 A3019 RMK A01 T01300085  RH  074%=      5-min Rain = 0
KTH1 060056Z 09002KT 13/09 A3019 RMK A01 T01290085  RH  075%=      5-min Rain = 0
KTH1 060057Z 09002KT 13/09 A3019 RMK A01 T01290085  RH  075%=      5-min Rain = 0
KTH1 060058Z 09002KT 13/09 A3019 RMK A01 T01280085  RH  075%=      5-min Rain = 0
KTH1 060059Z 09002KT 13/09 A3019 RMK A01 T01280085  RH  075%=      5-min Rain = 0
KTH1 060100Z 09002KT 13/09 A3019 RMK A01 T01280085  RH  075%=      5-min Rain = 0
KTH1 060101Z 09002KT 13/09 A3019 RMK A01 T01270085  RH  076%=      5-min Rain = 0
KTH1 060102Z 09002KT 13/09 A3019 RMK A01 T01270085  RH  076%=      5-min Rain = 0
KTH1 060103Z 09002KT 13/09 A3019 RMK A01 T01260085  RH  076%=      5-min Rain = 0
KTH1 060104Z 09002KT 13/09 A3019 RMK A01 T01260086  RH  076%=      5-min Rain = 0
KTH1 060105Z 09002KT 13/09 A3019 RMK A01 T01260085  RH  076%=      5-min Rain = 0
KTH1 060106Z 09002KT 13/09 A3019 RMK A01 T01260085  RH  076%=      5-min Rain = 0
KTH1 060107Z 09002KT 13/09 A3019 RMK A01 T01250085  RH  076%=      5-min Rain = 0
KTH1 060108Z 09002KT 13/09 A3019 RMK A01 T01250085  RH  076%=      5-min Rain = 0
KTH1 060109Z 09002KT 12/09 A3019 RMK A01 T01240085  RH  077%=      5-min Rain = 0
KTH1 060110Z 09002KT 12/09 A3019 RMK A01 T01240085  RH  077%=      5-min Rain = 0
KTH1 060111Z 08002KT 12/09 A3019 RMK A01 T01230085  RH  077%=      5-min Rain = 0
KTH1 060112Z 09002KT 12/09 A3019 RMK A01 T01230085  RH  078%=      5-min Rain = 0
KTH1 060113Z 09002KT 12/09 A3019 RMK A01 T01230085  RH  078%=      5-min Rain = 0
KTH1 060114Z 09002KT 12/09 A3019 RMK A01 T01230085  RH  078%=      5-min Rain = 0
KTH1 060115Z 10002KT 12/09 A3019 RMK A01 T01230086  RH  078%=      5-min Rain = 0
KTH1 060116Z 11002KT 12/09 A3019 RMK A01 T01220085  RH  078%=      5-min Rain = 0
KTH1 060117Z 11002KT 12/09 A3019 RMK A01 T01220085  RH  078%=      5-min Rain = 0
KTH1 060118Z 11002KT 12/09 A3019 RMK A01 T01220085  RH  078%=      5-min Rain = 0
KTH1 060119Z 11002KT 12/09 A3019 RMK A01 T01210085  RH  078%=      5-min Rain = 0
KTH1 060120Z 10002KT 12/08 A3019 RMK A01 T01210084  RH  078%=      5-min Rain = 0
KTH1 060121Z 10002KT 12/08 A3019 RMK A01 T01200084  RH  078%=      5-min Rain = 0
KTH1 060122Z 10001KT 12/08 A3019 RMK A01 T01190083  RH  079%=      5-min Rain = 0
KTH1 060123Z 10001KT 12/08 A3019 RMK A01 T01190083  RH  079%=      5-min Rain = 0
KTH1 060124Z 10001KT 12/09 A3019 RMK A01 T01180085  RH  080%=      5-min Rain = 0
KTH1 060125Z 10001KT 12/09 A3019 RMK A01 T01180089  RH  082%=      5-min Rain = 0
KTH1 060126Z 10001KT 12/09 A3019 RMK A01 T01170090  RH  083%=      5-min Rain = 0
KTH1 060127Z 10001KT 12/09 A3019 RMK A01 T01160089  RH  083%=      5-min Rain = 0
KTH1 060128Z 10001KT 12/09 A3019 RMK A01 T01150089  RH  084%=      5-min Rain = 0
KTH1 060129Z 10001KT 12/09 A3019 RMK A01 T01150089  RH  084%=      5-min Rain = 0
KTH1 060130Z 10001KT 11/09 A3019 RMK A01 T01140089  RH  084%=      5-min Rain = 0
KTH1 060131Z 10002KT 11/09 A3019 RMK A01 T01140091  RH  085%=      5-min Rain = 0
KTH1 060132Z 11002KT 11/09 A3019 RMK A01 T01140091  RH  086%=      5-min Rain = 0
KTH1 060133Z 11002KT 11/09 A3019 RMK A01 T01130089  RH  085%=      5-min Rain = 0
KTH1 060134Z 11002KT 11/09 A3019 RMK A01 T01120087  RH  084%=      5-min Rain = 0
KTH1 060135Z 11002KT 11/09 A3019 RMK A01 T01120086  RH  084%=      5-min Rain = 0
KTH1 060136Z 11003KT 11/09 A3019 RMK A01 T01120085  RH  084%=      5-min Rain = 0
KTH1 060137Z 10002KT 11/09 A3019 RMK A01 T01120085  RH  083%=      5-min Rain = 0
KTH1 060138Z 10002KT 11/08 A3019 RMK A01 T01120084  RH  083%=      5-min Rain = 0
KTH1 060139Z 10002KT 11/08 A3019 RMK A01 T01120084  RH  083%=      5-min Rain = 0
KTH1 060140Z 10002KT 11/08 A3019 RMK A01 T01120083  RH  083%=      5-min Rain = 0
KTH1 060141Z 10002KT 11/08 A3019 RMK A01 T01120084  RH  083%=      5-min Rain = 0
KTH1 060142Z 10002KT 11/08 A3019 RMK A01 T01120083  RH  083%=      5-min Rain = 0
KTH1 060143Z 10002KT 11/08 A3019 RMK A01 T01120084  RH  083%=      5-min Rain = 0
KTH1 060144Z 09002KT 11/08 A3019 RMK A01 T01110084  RH  083%=      5-min Rain = 0
KTH1 060145Z 09002KT 11/08 A3019 RMK A01 T01110084  RH  083%=      5-min Rain = 0
KTH1 060146Z 09002KT 11/08 A3019 RMK A01 T01110084  RH  084%=      5-min Rain = 0
KTH1 060147Z 08002KT 11/09 A3019 RMK A01 T01110085  RH  084%=      5-min Rain = 0
KTH1 060148Z 08002KT 11/09 A3019 RMK A01 T01110085  RH  084%=      5-min Rain = 0
KTH1 060149Z 08002KT 11/08 A3019 RMK A01 T01110084  RH  084%=      5-min Rain = 0
KTH1 060150Z 08002KT 11/08 A3019 RMK A01 T01120084  RH  083%=      5-min Rain = 0
KTH1 060151Z 08002KT 11/08 A3019 RMK A01 T01110083  RH  083%=      5-min Rain = 0
KTH1 060152Z 09002KT 11/08 A3019 RMK A01 T01110083  RH  083%=      5-min Rain = 0
KTH1 060153Z 09002KT 11/08 A3019 RMK A01 T01100083  RH  083%=      5-min Rain = 0
KTH1 060154Z 09002KT 11/08 A3019 RMK A01 T01100084  RH  084%=      5-min Rain = 0
KTH1 060155Z 09002KT 11/08 A3019 RMK A01 T01100084  RH  084%=      5-min Rain = 0
KTH1 060156Z 09002KT 11/08 A3019 RMK A01 T01090084  RH  085%=      5-min Rain = 0
KTH1 060157Z 09002KT 11/09 A3019 RMK A01 T01090085  RH  085%=      5-min Rain = 0
KTH1 060158Z 09002KT 11/09 A3019 RMK A01 T01090085  RH  085%=      5-min Rain = 0
KTH1 060159Z 09002KT 11/09 A3019 RMK A01 T01090085  RH  085%=      5-min Rain = 0
KTH1 060200Z 09002KT 11/09 A3019 RMK A01 T01090085  RH  085%=      5-min Rain = 0
KTH1 060201Z 09001KT 11/09 A3019 RMK A01 T01090085  RH  085%=      5-min Rain = 0
KTH1 060202Z 09001KT 11/09 A3019 RMK A01 T01090085  RH  085%=      5-min Rain = 0
KTH1 060203Z 09001KT 11/09 A3019 RMK A01 T01090085  RH  086%=      5-min Rain = 0
KTH1 060204Z 09001KT 11/09 A3019 RMK A01 T01080086  RH  086%=      5-min Rain = 0
KTH1 060205Z 09001KT 11/09 A3019 RMK A01 T01080087  RH  087%=      5-min Rain = 0
KTH1 060206Z 10002KT 11/09 A3019 RMK A01 T01070086  RH  087%=      5-min Rain = 0
KTH1 060207Z 10001KT 11/09 A3019 RMK A01 T01070087  RH  087%=      5-min Rain = 0
KTH1 060208Z 10001KT 11/09 A3019 RMK A01 T01060087  RH  088%=      5-min Rain = 0
KTH1 060209Z 10001KT 11/09 A3019 RMK A01 T01060087  RH  088%=      5-min Rain = 0
KTH1 060210Z 10001KT 11/09 A3019 RMK A01 T01050086  RH  088%=      5-min Rain = 0
KTH1 060211Z 10001KT 11/09 A3019 RMK A01 T01060086  RH  088%=      5-min Rain = 0
KTH1 060212Z 10001KT 11/09 A3019 RMK A01 T01050086  RH  088%=      5-min Rain = 0
KTH1 060213Z 10001KT 11/09 A3019 RMK A01 T01050086  RH  088%=      5-min Rain = 0
KTH1 060214Z 10002KT 11/09 A3019 RMK A01 T01050086  RH  088%=      5-min Rain = 0
KTH1 060215Z 11002KT 11/09 A3019 RMK A01 T01050086  RH  088%=      5-min Rain = 0
KTH1 060216Z 11002KT 11/09 A302 RMK A01 T01060087  RH  088%=      5-min Rain = 0
KTH1 060217Z 12002KT 11/09 A302 RMK A01 T01070087  RH  087%=      5-min Rain = 0
KTH1 060218Z 12002KT 11/09 A302 RMK A01 T01070086  RH  087%=      5-min Rain = 0
KTH1 060219Z 12002KT 11/09 A302 RMK A01 T01070086  RH  087%=      5-min Rain = 0
KTH1 060220Z 12002KT 11/09 A302 RMK A01 T01070085  RH  087%=      5-min Rain = 0
KTH1 060221Z 13002KT 11/09 A302 RMK A01 T01070086  RH  087%=      5-min Rain = 0
KTH1 060222Z 14002KT 11/09 A302 RMK A01 T01070086  RH  087%=      5-min Rain = 0
KTH1 060223Z 14003KT 11/09 A302 RMK A01 T01070086  RH  087%=      5-min Rain = 0
KTH1 060224Z 14003KT 11/09 A3019 RMK A01 T01080085  RH  086%=      5-min Rain = 0
KTH1 060225Z 13003KT 11/09 A3019 RMK A01 T01080085  RH  086%=      5-min Rain = 0
KTH1 060226Z 13003KT 11/08 A3019 RMK A01 T01080084  RH  085%=      5-min Rain = 0
KTH1 060227Z 12003KT 11/08 A3019 RMK A01 T01080084  RH  085%=      5-min Rain = 0
KTH1 060228Z 12004KT 11/08 A3019 RMK A01 T01080084  RH  085%=      5-min Rain = 0
KTH1 060229Z 12003KT 11/08 A3019 RMK A01 T01080084  RH  085%=      5-min Rain = 0
KTH1 060230Z 12003KT 11/08 A3019 RMK A01 T01070083  RH  085%=      5-min Rain = 0
KTH1 060231Z 12003KT 11/08 A3019 RMK A01 T01070083  RH  085%=      5-min Rain = 0
KTH1 060232Z 12003KT 11/08 A3019 RMK A01 T01070084  RH  086%=      5-min Rain = 0
KTH1 060233Z 11003KT 11/09 A3019 RMK A01 T01070085  RH  086%=      5-min Rain = 0
KTH1 060234Z 11003KT 11/09 A302 RMK A01 T01070085  RH  086%=      5-min Rain = 0
KTH1 060235Z 11002KT 11/09 A302 RMK A01 T01070086  RH  087%=      5-min Rain = 0
KTH1 060236Z 11002KT 11/09 A302 RMK A01 T01080087  RH  087%=      5-min Rain = 0
KTH1 060237Z 11002KT 11/09 A302 RMK A01 T01080086  RH  086%=      5-min Rain = 0
KTH1 060238Z 11001KT 11/09 A302 RMK A01 T01080087  RH  087%=      5-min Rain = 0
KTH1 060239Z 11001KT 11/09 A302 RMK A01 T01080087  RH  087%=      5-min Rain = 0
KTH1 060240Z 11001KT 11/09 A302 RMK A01 T01070086  RH  086%=      5-min Rain = 0
KTH1 060241Z 11000KT 11/08 A302 RMK A01 T01060084  RH  086%=      5-min Rain = 0
KTH1 060242Z 11000KT 10/08 A302 RMK A01 T01040084  RH  087%=      5-min Rain = 0
KTH1 060243Z 11001KT 10/08 A302 RMK A01 T01030084  RH  088%=      5-min Rain = 0
KTH1 060244Z 11001KT 10/08 A302 RMK A01 T01020084  RH  088%=      5-min Rain = 0
KTH1 060245Z 08001KT 10/08 A3019 RMK A01 T01010084  RH  089%=      5-min Rain = 0
KTH1 060246Z 08001KT 10/08 A3019 RMK A01 T01010084  RH  089%=      5-min Rain = 0
KTH1 060247Z 07001KT 10/08 A3019 RMK A01 T01000084  RH  090%=      5-min Rain = 0
KTH1 060248Z 07001KT 10/09 A3019 RMK A01 T01000085  RH  090%=      5-min Rain = 0
KTH1 060249Z 08001KT 10/09 A3019 RMK A01 T01000085  RH  090%=      5-min Rain = 0
KTH1 060250Z 08001KT 10/08 A3019 RMK A01 T00990084  RH  090%=      5-min Rain = 0
KTH1 060251Z 09002KT 10/08 A3019 RMK A01 T00990084  RH  091%=      5-min Rain = 0
KTH1 060252Z 09002KT 10/08 A3019 RMK A01 T00990084  RH  091%=      5-min Rain = 0
KTH1 060253Z 09001KT 10/08 A3019 RMK A01 T00990084  RH  091%=      5-min Rain = 0
KTH1 060254Z 09001KT 10/08 A3019 RMK A01 T00990084  RH  091%=      5-min Rain = 0
KTH1 060255Z 09001KT 10/08 A3019 RMK A01 T00980084  RH  091%=      5-min Rain = 0
KTH1 060256Z 09001KT 10/08 A3019 RMK A01 T00980084  RH  091%=      5-min Rain = 0
KTH1 060257Z 09001KT 10/08 A3019 RMK A01 T00980084  RH  091%=      5-min Rain = 0
KTH1 060258Z 10001KT 10/08 A3019 RMK A01 T00970083  RH  091%=      5-min Rain = 0
KTH1 060259Z 11002KT 10/08 A302 RMK A01 T00970083  RH  091%=      5-min Rain = 0
KTH1 060300Z 13002KT 10/08 A302 RMK A01 T00960083  RH  092%=      5-min Rain = 0
KTH1 060301Z 13002KT 10/08 A302 RMK A01 T00960084  RH  092%=      5-min Rain = 0
KTH1 060302Z 13003KT 10/08 A302 RMK A01 T00970084  RH  092%=      5-min Rain = 0
KTH1 060303Z 12003KT 10/08 A302 RMK A01 T00970082  RH  091%=      5-min Rain = 0
KTH1 060304Z 12003KT 10/08 A302 RMK A01 T00960081  RH  090%=      5-min Rain = 0
KTH1 060305Z 12003KT 10/08 A302 RMK A01 T00950080  RH  090%=      5-min Rain = 0
KTH1 060306Z 12003KT 10/08 A302 RMK A01 T00950080  RH  090%=      5-min Rain = 0
KTH1 060307Z 13004KT 10/08 A302 RMK A01 T00950080  RH  090%=      5-min Rain = 0
KTH1 060308Z 13004KT 10/08 A302 RMK A01 T00950080  RH  090%=      5-min Rain = 0
KTH1 060309Z 13004KT 10/08 A302 RMK A01 T00950080  RH  090%=      5-min Rain = 0
KTH1 060310Z 13004KT 10/08 A302 RMK A01 T00950080  RH  090%=      5-min Rain = 0
KTH1 060311Z 13004KT 10/08 A302 RMK A01 T00960082  RH  091%=      5-min Rain = 0
KTH1 060312Z 13004KT 10/08 A302 RMK A01 T00970083  RH  091%=      5-min Rain = 0
KTH1 060313Z 13004KT 10/09 A302 RMK A01 T00990086  RH  091%=      5-min Rain = 0
KTH1 060314Z 14003KT 10/09 A302 RMK A01 T01000086  RH  091%=      5-min Rain = 0
KTH1 060315Z 14003KT 10/09 A302 RMK A01 T01010087  RH  091%=      5-min Rain = 0
KTH1 060316Z 15003KT 10/09 A302 RMK A01 T01030088  RH  090%=      5-min Rain = 0
KTH1 060317Z 15003KT 10/09 A302 RMK A01 T01030087  RH  090%=      5-min Rain = 0
KTH1 060318Z 15003KT 10/09 A302 RMK A01 T01040088  RH  090%=      5-min Rain = 0
KTH1 060319Z 15003KT 10/09 A302 RMK A01 T01040088  RH  090%=      5-min Rain = 0
KTH1 060320Z 16003KT 11/09 A302 RMK A01 T01050088  RH  089%=      5-min Rain = 0
KTH1 060321Z 16003KT 11/09 A302 RMK A01 T01050088  RH  089%=      5-min Rain = 0
KTH1 060322Z 16003KT 11/09 A302 RMK A01 T01050088  RH  089%=      5-min Rain = 0
KTH1 060323Z 16003KT 11/09 A302 RMK A01 T01050088  RH  089%=      5-min Rain = 0
KTH1 060324Z 16002KT 11/09 A302 RMK A01 T01050087  RH  089%=      5-min Rain = 0
KTH1 060325Z 15002KT 11/09 A302 RMK A01 T01050087  RH  089%=      5-min Rain = 0
KTH1 060326Z 15002KT 10/09 A302 RMK A01 T01040088  RH  089%=      5-min Rain = 0
KTH1 060327Z 15003KT 10/09 A302 RMK A01 T01040088  RH  089%=      5-min Rain = 0
KTH1 060328Z 15002KT 11/09 A302 RMK A01 T01050088  RH  089%=      5-min Rain = 0
KTH1 060329Z 16002KT 11/09 A302 RMK A01 T01050088  RH  089%=      5-min Rain = 0
KTH1 060330Z 16002KT 11/09 A302 RMK A01 T01050087  RH  089%=      5-min Rain = 0
KTH1 060331Z 16002KT 11/09 A302 RMK A01 T01050087  RH  089%=      5-min Rain = 0
KTH1 060332Z 16002KT 11/09 A302 RMK A01 T01050087  RH  089%=      5-min Rain = 0
KTH1 060333Z 17002KT 10/09 A302 RMK A01 T01040087  RH  089%=      5-min Rain = 0
KTH1 060334Z 17002KT 10/09 A302 RMK A01 T01040087  RH  089%=      5-min Rain = 0
KTH1 060335Z 17001KT 10/09 A302 RMK A01 T01040087  RH  089%=      5-min Rain = 0
KTH1 060336Z 17001KT 10/09 A302 RMK A01 T01030087  RH  089%=      5-min Rain = 0
KTH1 060337Z 17001KT 10/09 A302 RMK A01 T01030087  RH  090%=      5-min Rain = 0
KTH1 060338Z 17001KT 10/09 A302 RMK A01 T01030087  RH  090%=      5-min Rain = 0
KTH1 060339Z 16001KT 10/09 A302 RMK A01 T01020086  RH  090%=      5-min Rain = 0
KTH1 060340Z 15002KT 10/09 A302 RMK A01 T01020086  RH  090%=      5-min Rain = 0
KTH1 060341Z 15002KT 10/09 A302 RMK A01 T01010085  RH  090%=      5-min Rain = 0
KTH1 060342Z 15002KT 10/08 A302 RMK A01 T01000084  RH  090%=      5-min Rain = 0
KTH1 060343Z 15001KT 10/08 A302 RMK A01 T00990083  RH  090%=      5-min Rain = 0
KTH1 060344Z 15001KT 10/08 A302 RMK A01 T00980084  RH  091%=      5-min Rain = 0
KTH1 060345Z 15001KT 10/08 A302 RMK A01 T00980084  RH  091%=      5-min Rain = 0
KTH1 060346Z 15001KT 10/09 A302 RMK A01 T00970085  RH  092%=      5-min Rain = 0
KTH1 060347Z 15000KT 10/09 A302 RMK A01 T00980086  RH  092%=      5-min Rain = 0
KTH1 060348Z 15001KT 10/09 A302 RMK A01 T00970085  RH  092%=      5-min Rain = 0
KTH1 060349Z 15001KT 10/08 A302 RMK A01 T00960084  RH  092%=      5-min Rain = 0
KTH1 060350Z 15000KT 10/08 A302 RMK A01 T00960084  RH  092%=      5-min Rain = 0
KTH1 060351Z 00000KT 10/08 A302 RMK A01 T00950083  RH  092%=      5-min Rain = 0
KTH1 060352Z 00000KT 09/08 A302 RMK A01 T00940083  RH  093%=      5-min Rain = 0
KTH1 060353Z 00000KT 09/08 A302 RMK A01 T00940083  RH  093%=      5-min Rain = 0
KTH1 060354Z 00000KT 09/08 A302 RMK A01 T00930082  RH  093%=      5-min Rain = 0
KTH1 060355Z 00000KT 09/08 A302 RMK A01 T00920082  RH  093%=      5-min Rain = 0
KTH1 060356Z 15001KT 09/08 A302 RMK A01 T00920082  RH  093%=      5-min Rain = 0
KTH1 060357Z 15001KT 09/08 A302 RMK A01 T00920081  RH  093%=      5-min Rain = 0
KTH1 060358Z 16003KT 09/08 A302 RMK A01 T00910081  RH  093%=      5-min Rain = 0
KTH1 060359Z 16003KT 09/08 A302 RMK A01 T00910081  RH  093%=      5-min Rain = 0
KTH1 060400Z 16004KT 09/08 A302 RMK A01 T00910082  RH  094%=      5-min Rain = 0
KTH1 060401Z 16004KT 09/08 A302 RMK A01 T00920084  RH  094%=      5-min Rain = 0
KTH1 060402Z 16003KT 09/08 A302 RMK A01 T00930084  RH  094%=      5-min Rain = 0
KTH1 060403Z 16003KT 09/08 A302 RMK A01 T00930084  RH  094%=      5-min Rain = 0
KTH1 060404Z 15003KT 09/09 A302 RMK A01 T00940085  RH  094%=      5-min Rain = 0
KTH1 060405Z 16003KT 09/09 A3021 RMK A01 T00940085  RH  094%=      5-min Rain = 0
KTH1 060406Z 17003KT 09/09 A3021 RMK A01 T00940085  RH  094%=      5-min Rain = 0
KTH1 060407Z 17003KT 10/09 A3021 RMK A01 T00950085  RH  093%=      5-min Rain = 0
KTH1 060408Z 17003KT 10/08 A3021 RMK A01 T00950084  RH  093%=      5-min Rain = 0
KTH1 060409Z 16003KT 10/09 A3021 RMK A01 T00950085  RH  093%=      5-min Rain = 0
KTH1 060410Z 16003KT 10/09 A3021 RMK A01 T00950085  RH  093%=      5-min Rain = 0
KTH1 060411Z 16003KT 10/09 A3021 RMK A01 T00950085  RH  093%=      5-min Rain = 0
KTH1 060412Z 17003KT 10/09 A3021 RMK A01 T00960085  RH  093%=      5-min Rain = 0
KTH1 060413Z 18002KT 10/09 A3021 RMK A01 T00960086  RH  093%=      5-min Rain = 0
KTH1 060414Z 18002KT 10/09 A3021 RMK A01 T00970087  RH  093%=      5-min Rain = 0
KTH1 060415Z 18002KT 10/09 A3021 RMK A01 T00980086  RH  093%=      5-min Rain = 0
KTH1 060416Z 17002KT 10/09 A3021 RMK A01 T00980085  RH  092%=      5-min Rain = 0
KTH1 060417Z 17002KT 10/08 A3021 RMK A01 T00970084  RH  092%=      5-min Rain = 0
KTH1 060418Z 17002KT 10/08 A3021 RMK A01 T00960084  RH  092%=      5-min Rain = 0
KTH1 060419Z 16002KT 10/08 A3021 RMK A01 T00960083  RH  092%=      5-min Rain = 0
KTH1 060420Z 17002KT 10/08 A3021 RMK A01 T00950083  RH  092%=      5-min Rain = 0
KTH1 060421Z 16002KT 10/08 A3021 RMK A01 T00950083  RH  092%=      5-min Rain = 0
KTH1 060422Z 16002KT 09/08 A3021 RMK A01 T00940082  RH  092%=      5-min Rain = 0
KTH1 060423Z 16002KT 09/08 A3021 RMK A01 T00940082  RH  093%=      5-min Rain = 0
KTH1 060424Z 16002KT 09/08 A3021 RMK A01 T00940083  RH  093%=      5-min Rain = 0
KTH1 060425Z 15002KT 09/08 A3021 RMK A01 T00940084  RH  094%=      5-min Rain = 0
KTH1 060426Z 15002KT 10/09 A3021 RMK A01 T00950085  RH  094%=      5-min Rain = 0
KTH1 060427Z 15002KT 10/09 A3021 RMK A01 T00950085  RH  094%=      5-min Rain = 0
KTH1 060428Z 15001KT 10/09 A3021 RMK A01 T00950085  RH  094%=      5-min Rain = 0
KTH1 060429Z 15001KT 10/09 A3021 RMK A01 T00950085  RH  094%=      5-min Rain = 0
KTH1 060430Z 15001KT 10/09 A3021 RMK A01 T00950085  RH  093%=      5-min Rain = 0
KTH1 060431Z 16001KT 10/08 A3021 RMK A01 T00950084  RH  093%=      5-min Rain = 0
KTH1 060432Z 15001KT 09/08 A3021 RMK A01 T00940084  RH  093%=      5-min Rain = 0
KTH1 060433Z 14001KT 09/08 A3021 RMK A01 T00940083  RH  093%=      5-min Rain = 0
KTH1 060434Z 14001KT 09/08 A3021 RMK A01 T00930083  RH  093%=      5-min Rain = 0
KTH1 060435Z 14001KT 09/08 A3021 RMK A01 T00930083  RH  094%=      5-min Rain = 0
KTH1 060436Z 14001KT 09/08 A3021 RMK A01 T00930084  RH  094%=      5-min Rain = 0
KTH1 060437Z 14001KT 09/09 A3021 RMK A01 T00930085  RH  094%=      5-min Rain = 0
KTH1 060438Z 13002KT 09/08 A3021 RMK A01 T00930084  RH  094%=      5-min Rain = 0
KTH1 060439Z 13002KT 09/09 A3021 RMK A01 T00930085  RH  094%=      5-min Rain = 0
KTH1 060440Z 13002KT 09/09 A3021 RMK A01 T00930085  RH  095%=      5-min Rain = 0
KTH1 060441Z 14002KT 09/09 A3021 RMK A01 T00930085  RH  095%=      5-min Rain = 0
KTH1 060442Z 14002KT 09/09 A3021 RMK A01 T00930085  RH  095%=      5-min Rain = 0
KTH1 060443Z 15003KT 09/09 A3021 RMK A01 T00930085  RH  095%=      5-min Rain = 0
KTH1 060444Z 15002KT 09/09 A3021 RMK A01 T00930085  RH  095%=      5-min Rain = 0
KTH1 060445Z 16002KT 09/09 A3021 RMK A01 T00940086  RH  095%=      5-min Rain = 0
KTH1 060446Z 16003KT 09/09 A3021 RMK A01 T00940085  RH  095%=      5-min Rain = 0
KTH1 060447Z 16003KT 09/09 A3021 RMK A01 T00940085  RH  094%=      5-min Rain = 0
KTH1 060448Z 16003KT 09/09 A3021 RMK A01 T00940085  RH  094%=      5-min Rain = 0
KTH1 060449Z 16003KT 09/09 A3021 RMK A01 T00940085  RH  094%=      5-min Rain = 0
KTH1 060450Z 15003KT 09/09 A3021 RMK A01 T00940085  RH  094%=      5-min Rain = 0
KTH1 060451Z 15003KT 09/09 A3021 RMK A01 T00940086  RH  095%=      5-min Rain = 0
KTH1 060452Z 15003KT 10/09 A3021 RMK A01 T00950087  RH  095%=      5-min Rain = 0
KTH1 060453Z 15003KT 10/09 A3021 RMK A01 T00950087  RH  095%=      5-min Rain = 0
KTH1 060454Z 16003KT 10/09 A3021 RMK A01 T00950087  RH  094%=      5-min Rain = 0
KTH1 060455Z 16003KT 10/09 A3021 RMK A01 T00960087  RH  094%=      5-min Rain = 0
KTH1 060456Z 16003KT 10/09 A3021 RMK A01 T00950086  RH  094%=      5-min Rain = 0
KTH1 060457Z 16003KT 10/09 A3021 RMK A01 T00960086  RH  094%=      5-min Rain = 0
KTH1 060458Z 17003KT 10/09 A3021 RMK A01 T00960086  RH  094%=      5-min Rain = 0
KTH1 060459Z 17002KT 10/09 A302 RMK A01 T00960086  RH  094%=      5-min Rain = 0
KTH1 060500Z 16002KT 10/09 A302 RMK A01 T00960086  RH  094%=      5-min Rain = 0
KTH1 060501Z 16002KT 10/09 A302 RMK A01 T00960086  RH  094%=      5-min Rain = 0
KTH1 060502Z 16002KT 10/09 A302 RMK A01 T00960086  RH  094%=      5-min Rain = 0
KTH1 060503Z 17002KT 10/09 A302 RMK A01 T00960086  RH  094%=      5-min Rain = 0
KTH1 060504Z 17002KT 10/09 A302 RMK A01 T00960086  RH  094%=      5-min Rain = 0
KTH1 060505Z 18001KT 10/09 A302 RMK A01 T00950085  RH  093%=      5-min Rain = 0
KTH1 060506Z 18002KT 09/08 A302 RMK A01 T00940084  RH  093%=      5-min Rain = 0
KTH1 060507Z 17002KT 09/08 A3021 RMK A01 T00930081  RH  092%=      5-min Rain = 0
KTH1 060508Z 17002KT 09/08 A3021 RMK A01 T00910079  RH  092%=      5-min Rain = 0
KTH1 060509Z 17001KT 09/08 A3021 RMK A01 T00890078  RH  093%=      5-min Rain = 0
KTH1 060510Z 16001KT 09/08 A3021 RMK A01 T00890078  RH  093%=      5-min Rain = 0
KTH1 060511Z 15002KT 09/08 A302 RMK A01 T00880077  RH  093%=      5-min Rain = 0
KTH1 060512Z 15002KT 09/08 A302 RMK A01 T00870077  RH  093%=      5-min Rain = 0
KTH1 060513Z 15001KT 09/08 A302 RMK A01 T00870077  RH  094%=      5-min Rain = 0
KTH1 060514Z 16002KT 09/08 A302 RMK A01 T00860077  RH  094%=      5-min Rain = 0
KTH1 060515Z 16002KT 09/08 A302 RMK A01 T00860077  RH  094%=      5-min Rain = 0
KTH1 060516Z 17001KT 09/08 A302 RMK A01 T00870078  RH  094%=      5-min Rain = 0
KTH1 060517Z 18001KT 09/08 A302 RMK A01 T00870079  RH  095%=      5-min Rain = 0
KTH1 060518Z 18001KT 09/08 A302 RMK A01 T00870080  RH  095%=      5-min Rain = 0
KTH1 060519Z 17001KT 09/08 A302 RMK A01 T00870080  RH  095%=      5-min Rain = 0
KTH1 060520Z 17001KT 09/08 A302 RMK A01 T00870080  RH  095%=      5-min Rain = 0
KTH1 060521Z 00000KT 09/08 A302 RMK A01 T00880081  RH  095%=      5-min Rain = 0
KTH1 060522Z 00000KT 09/08 A302 RMK A01 T00880082  RH  096%=      5-min Rain = 0
KTH1 060523Z 00000KT 09/08 A302 RMK A01 T00890083  RH  096%=      5-min Rain = 0
KTH1 060524Z 15000KT 09/08 A302 RMK A01 T00890081  RH  095%=      5-min Rain = 0
KTH1 060525Z 14001KT 09/08 A302 RMK A01 T00880081  RH  095%=      5-min Rain = 0
KTH1 060526Z 14000KT 09/08 A302 RMK A01 T00880081  RH  095%=      5-min Rain = 0
KTH1 060527Z 13001KT 09/08 A302 RMK A01 T00880080  RH  095%=      5-min Rain = 0
KTH1 060528Z 14002KT 09/08 A302 RMK A01 T00880080  RH  095%=      5-min Rain = 0
KTH1 060529Z 14000KT 09/08 A302 RMK A01 T00880080  RH  095%=      5-min Rain = 0
KTH1 060530Z 14000KT 09/08 A302 RMK A01 T00870080  RH  095%=      5-min Rain = 0
KTH1 060531Z 14000KT 09/08 A302 RMK A01 T00860079  RH  095%=      5-min Rain = 0
KTH1 060532Z 00000KT 09/08 A302 RMK A01 T00870079  RH  095%=      5-min Rain = 0
KTH1 060533Z 14000KT 09/08 A302 RMK A01 T00860079  RH  095%=      5-min Rain = 0
KTH1 060534Z 13000KT 09/08 A302 RMK A01 T00860079  RH  096%=      5-min Rain = 0
KTH1 060535Z 14000KT 09/08 A302 RMK A01 T00860080  RH  096%=      5-min Rain = 0
KTH1 060536Z 00000KT 09/08 A302 RMK A01 T00860080  RH  096%=      5-min Rain = 0
KTH1 060537Z 14000KT 09/08 A302 RMK A01 T00860080  RH  096%=      5-min Rain = 0
KTH1 060538Z 14000KT 09/08 A302 RMK A01 T00860080  RH  096%=      5-min Rain = 0
KTH1 060539Z 14000KT 09/08 A302 RMK A01 T00860080  RH  096%=      5-min Rain = 0
KTH1 060540Z 16002KT 09/08 A302 RMK A01 T00860080  RH  096%=      5-min Rain = 0
KTH1 060541Z 16003KT 09/08 A302 RMK A01 T00860080  RH  096%=      5-min Rain = 0
KTH1 060542Z 15002KT 09/08 A302 RMK A01 T00860081  RH  096%=      5-min Rain = 0
KTH1 060543Z 15001KT 09/08 A302 RMK A01 T00870082  RH  097%=      5-min Rain = 0
KTH1 060544Z 15002KT 09/08 A302 RMK A01 T00880083  RH  097%=      5-min Rain = 0
KTH1 060545Z 15002KT 09/08 A302 RMK A01 T00880083  RH  097%=      5-min Rain = 0
KTH1 060546Z 15002KT 09/08 A302 RMK A01 T00890084  RH  097%=      5-min Rain = 0
KTH1 060547Z 15002KT 09/09 A302 RMK A01 T00890085  RH  097%=      5-min Rain = 0
KTH1 060548Z 15002KT 09/09 A302 RMK A01 T00900085  RH  097%=      5-min Rain = 0
KTH1 060549Z 15002KT 09/09 A302 RMK A01 T00900086  RH  097%=      5-min Rain = 0
KTH1 060550Z 15002KT 09/09 A302 RMK A01 T00900086  RH  097%=      5-min Rain = 0
KTH1 060551Z 15002KT 09/09 A302 RMK A01 T00910088  RH  098%=      5-min Rain = 0
KTH1 060552Z 15002KT 09/09 A302 RMK A01 T00920089  RH  098%=      5-min Rain = 0
KTH1 060553Z 15003KT 09/09 A302 RMK A01 T00930090  RH  098%=      5-min Rain = 0
KTH1 060554Z 15002KT 09/09 A302 RMK A01 T00940090  RH  098%=      5-min Rain = 0
KTH1 060555Z 16002KT 09/09 A302 RMK A01 T00940091  RH  098%=      5-min Rain = 0
KTH1 060556Z 16002KT 10/09 A302 RMK A01 T00950092  RH  098%=      5-min Rain = 0
KTH1 060557Z 17002KT 10/09 A302 RMK A01 T00960092  RH  098%=      5-min Rain = 0
KTH1 060558Z 16002KT 10/09 A302 RMK A01 T00960092  RH  098%=      5-min Rain = 0
KTH1 060559Z 16002KT 10/09 A302 RMK A01 T00950092  RH  098%=      5-min Rain = 0

Page generated in 0.0845 seconds.